Wetterdaten: Sonntag, 05.03.2017
Datum Zeit Temp. A. Feuchte A. Luftdruck Regen Wind Richtung Richtung Sonnenschein ET UV Solar Taupunkt Windchill Windben Empfang
05.03.2017 00:00 11,1 C 54 % 997,3 hPa 0,0 l/m 9,3 km/h (2 Bft) N 9 0 min 0,000 mm 0,0 UV-I 0 W/m 2,2 C 9,2 C 12,9 km/h (3 Bft) 100,00 %
05.03.2017 00:02 11,1 C 54 % 997,4 hPa 0,0 l/m 1,3 km/h (1 Bft) N 5 0 min 0,000 mm 0,0 UV-I 0 W/m 2,2 C 11,1 C 3,2 km/h (1 Bft) 9,09 %
05.03.2017 00:04 10,5 C 57 % 997,5 hPa 0,0 l/m 1,1 km/h (1 Bft) N 355 0 min 0,000 mm 0,0 UV-I 0 W/m 2,3 C 10,5 C 4,8 km/h (1 Bft) 100,00 %
05.03.2017 00:06 10,4 C 56 % 997,5 hPa 0,0 l/m 3,0 km/h (1 Bft) N 5 0 min 0,000 mm 0,0 UV-I 0 W/m 2,0 C 10,4 C 4,8 km/h (1 Bft) 97,73 %
05.03.2017 00:08 10,3 C 57 % 997,6 hPa 0,0 l/m 1,8 km/h (1 Bft) W 265 0 min 0,000 mm 0,0 UV-I 0 W/m 2,2 C 10,3 C 4,8 km/h (1 Bft) 98,44 %
05.03.2017 00:10 10,2 C 57 % 997,7 hPa 0,0 l/m 4,8 km/h (1 Bft) W-NW 285 0 min 0,000 mm 0,0 UV-I 0 W/m 2,1 C 10,2 C 6,4 km/h (2 Bft) 97,44 %
05.03.2017 00:12 10,1 C 58 % 997,8 hPa 0,0 l/m 2,4 km/h (1 Bft) W-NW 302 0 min 0,000 mm 0,0 UV-I 0 W/m 2,2 C 10,1 C 4,8 km/h (1 Bft) 98,00 %
05.03.2017 00:14 10,1 C 58 % 998,0 hPa 0,0 l/m 6,0 km/h (2 Bft) W 275 0 min 0,000 mm 0,0 UV-I 0 W/m 2,2 C 10,1 C 11,3 km/h (2 Bft) 97,56 %
05.03.2017 00:16 10,1 C 58 % 998,2 hPa 0,0 l/m 3,2 km/h (1 Bft) W 275 0 min 0,000 mm 0,0 UV-I 0 W/m 2,2 C 10,1 C 4,8 km/h (1 Bft) 97,56 %
05.03.2017 00:18 9,9 C 59 % 998,2 hPa 0,0 l/m 0,6 km/h (0 Bft) W 275 0 min 0,000 mm 0,0 UV-I 0 W/m 2,3 C 9,9 C 3,2 km/h (1 Bft) 98,21 %
05.03.2017 00:20 9,8 C 59 % 998,3 hPa 0,0 l/m 0,3 km/h (0 Bft) W 275 0 min 0,000 mm 0,0 UV-I 0 W/m 2,2 C 9,8 C 3,2 km/h (1 Bft) 97,87 %
05.03.2017 00:22 9,8 C 59 % 998,3 hPa 0,0 l/m 0,7 km/h (0 Bft) W 275 0 min 0,000 mm 0,0 UV-I 0 W/m 2,2 C 9,8 C 3,2 km/h (1 Bft) 96,15 %
05.03.2017 00:24 9,8 C 59 % 998,3 hPa 0,0 l/m 4,6 km/h (1 Bft) SO 127 0 min 0,000 mm 0,0 UV-I 0 W/m 2,2 C 9,8 C 8,0 km/h (2 Bft) 97,06 %
05.03.2017 00:26 9,8 C 60 % 998,2 hPa 0,0 l/m 5,8 km/h (2 Bft) O-NO 69 0 min 0,000 mm 0,0 UV-I 0 W/m 2,4 C 9,8 C 9,7 km/h (2 Bft) 97,56 %
05.03.2017 00:28 9,9 C 59 % 998,3 hPa 0,0 l/m 1,9 km/h (1 Bft) O-NO 69 0 min 0,000 mm 0,0 UV-I 0 W/m 2,3 C 9,9 C 4,8 km/h (1 Bft) 96,43 %
05.03.2017 00:30 9,7 C 61 % 998,4 hPa 0,0 l/m 0,4 km/h (0 Bft) O-NO 69 0 min 0,000 mm 0,0 UV-I 0 W/m 2,5 C 9,7 C 1,6 km/h (1 Bft) 97,56 %
05.03.2017 00:32 9,5 C 61 % 998,5 hPa 0,0 l/m 1,4 km/h (1 Bft) S 169 0 min 0,000 mm 0,0 UV-I 0 W/m 2,4 C 9,5 C 6,4 km/h (2 Bft) 97,56 %
05.03.2017 00:34 9,7 C 61 % 998,6 hPa 0,0 l/m 3,2 km/h (1 Bft) W 272 0 min 0,000 mm 0,0 UV-I 0 W/m 2,5 C 9,7 C 6,4 km/h (2 Bft) 96,00 %
05.03.2017 00:36 9,8 C 60 % 998,6 hPa 0,0 l/m 1,9 km/h (1 Bft) W 272 0 min 0,000 mm 0,0 UV-I 0 W/m 2,4 C 9,8 C 4,8 km/h (1 Bft) 97,87 %
05.03.2017 00:38 9,6 C 61 % 998,6 hPa 0,0 l/m 3,3 km/h (1 Bft) S 170 0 min 0,000 mm 0,0 UV-I 0 W/m 2,5 C 9,6 C 6,4 km/h (2 Bft) 97,87 %
05.03.2017 00:40 9,4 C 61 % 998,7 hPa 0,0 l/m 2,7 km/h (1 Bft) S 170 0 min 0,000 mm 0,0 UV-I 0 W/m 2,3 C 9,4 C 6,4 km/h (2 Bft) 98,00 %
05.03.2017 00:42 9,0 C 63 % 998,8 hPa 0,0 l/m 1,3 km/h (1 Bft) S 170 0 min 0,000 mm 0,0 UV-I 0 W/m 2,3 C 9,0 C 3,2 km/h (1 Bft) 98,00 %
05.03.2017 00:44 8,7 C 65 % 998,8 hPa 0,0 l/m 1,6 km/h (1 Bft) S 170 0 min 0,000 mm 0,0 UV-I 0 W/m 2,5 C 8,7 C 3,2 km/h (1 Bft) 96,00 %
05.03.2017 00:46 8,6 C 65 % 998,7 hPa 0,0 l/m 2,7 km/h (1 Bft) S 170 0 min 0,000 mm 0,0 UV-I 0 W/m 2,4 C 8,6 C 6,4 km/h (2 Bft) 100,00 %
05.03.2017 00:48 8,4 C 66 % 998,7 hPa 0,0 l/m 2,5 km/h (1 Bft) S 170 0 min 0,000 mm 0,0 UV-I 0 W/m 2,4 C 8,4 C 6,4 km/h (2 Bft) 100,00 %
05.03.2017 00:50 8,2 C 68 % 998,7 hPa 0,0 l/m 3,9 km/h (1 Bft) S 170 0 min 0,000 mm 0,0 UV-I 0 W/m 2,7 C 8,2 C 8,0 km/h (2 Bft) 100,00 %
05.03.2017 00:52 8,4 C 67 % 998,8 hPa 0,0 l/m 3,5 km/h (1 Bft) S 170 0 min 0,000 mm 0,0 UV-I 0 W/m 2,6 C 8,4 C 6,4 km/h (2 Bft) 100,00 %
05.03.2017 00:54 8,5 C 67 % 998,8 hPa 0,0 l/m 2,9 km/h (1 Bft) S 170 0 min 0,000 mm 0,0 UV-I 0 W/m 2,7 C 8,5 C 6,4 km/h (2 Bft) 100,00 %
05.03.2017 00:56 8,2 C 68 % 999,0 hPa 0,0 l/m 3,5 km/h (1 Bft) S 171 0 min 0,000 mm 0,0 UV-I 0 W/m 2,7 C 8,2 C 6,4 km/h (2 Bft) 98,11 %
05.03.2017 00:58 8,2 C 69 % 999,1 hPa 0,0 l/m 5,2 km/h (1 Bft) S-SW 198 0 min 0,000 mm 0,0 UV-I 0 W/m 2,9 C 8,2 C 8,0 km/h (2 Bft) 100,00 %
05.03.2017 01:00 8,2 C 68 % 999,2 hPa 0,0 l/m 5,4 km/h (1 Bft) SW 230 0 min 0,025 mm 0,0 UV-I 0 W/m 2,7 C 8,2 C 8,0 km/h (2 Bft) 100,00 %
05.03.2017 01:02 8,3 C 68 % 999,2 hPa 0,0 l/m 6,0 km/h (2 Bft) S-SW 211 0 min 0,000 mm 0,0 UV-I 0 W/m 2,7 C 8,3 C 8,0 km/h (2 Bft) 95,12 %
05.03.2017 01:04 8,3 C 68 % 999,4 hPa 0,0 l/m 6,2 km/h (2 Bft) SW 232 0 min 0,000 mm 0,0 UV-I 0 W/m 2,7 C 8,3 C 9,7 km/h (2 Bft) 98,00 %
05.03.2017 01:06 8,2 C 69 % 999,8 hPa 0,0 l/m 12,3 km/h (3 Bft) W 265 0 min 0,000 mm 0,0 UV-I 0 W/m 2,9 C 4,3 C 16,1 km/h (3 Bft) 100,00 %
05.03.2017 01:08 8,3 C 68 % 999,9 hPa 0,0 l/m 13,9 km/h (3 Bft) W 266 0 min 0,000 mm 0,0 UV-I 0 W/m 2,7 C 3,6 C 22,5 km/h (4 Bft) 100,00 %
05.03.2017 01:10 8,8 C 64 % 999,9 hPa 0,0 l/m 23,0 km/h (4 Bft) W 261 0 min 0,000 mm 0,0 UV-I 0 W/m 2,4 C 0,8 C 33,8 km/h (5 Bft) 98,00 %
05.03.2017 01:12 9,6 C 62 % 1000,0 hPa 0,0 l/m 12,6 km/h (3 Bft) W 276 0 min 0,000 mm 0,0 UV-I 0 W/m 2,7 C 5,8 C 22,5 km/h (4 Bft) 100,00 %
05.03.2017 01:14 10,2 C 60 % 1000,1 hPa 0,0 l/m 14,8 km/h (3 Bft) W-NW 296 0 min 0,000 mm 0,0 UV-I 0 W/m 2,8 C 5,5 C 19,3 km/h (3 Bft) 100,00 %
05.03.2017 01:16 10,7 C 60 % 1000,2 hPa 0,0 l/m 15,2 km/h (3 Bft) W-SW 256 0 min 0,000 mm 0,0 UV-I 0 W/m 3,3 C 5,9 C 24,1 km/h (4 Bft) 100,00 %
05.03.2017 01:18 10,8 C 60 % 1000,3 hPa 0,0 l/m 16,6 km/h (3 Bft) W 266 0 min 0,000 mm 0,0 UV-I 0 W/m 3,4 C 5,5 C 30,6 km/h (5 Bft) 100,00 %
05.03.2017 01:20 10,9 C 62 % 1000,3 hPa 0,0 l/m 15,7 km/h (3 Bft) W-SW 256 0 min 0,000 mm 0,0 UV-I 0 W/m 3,9 C 5,9 C 22,5 km/h (4 Bft) 100,00 %
05.03.2017 01:22 10,8 C 63 % 1000,4 hPa 0,0 l/m 17,5 km/h (3 Bft) W-SW 240 0 min 0,000 mm 0,0 UV-I 0 W/m 4,0 C 5,2 C 29,0 km/h (5 Bft) 100,00 %
05.03.2017 01:24 10,6 C 64 % 1000,5 hPa 0,0 l/m 23,2 km/h (4 Bft) W-NW 292 0 min 0,000 mm 0,0 UV-I 0 W/m 4,1 C 3,1 C 53,1 km/h (7 Bft) 98,11 %
05.03.2017 01:26 10,5 C 64 % 1000,7 hPa 0,0 l/m 24,9 km/h (4 Bft) W 265 0 min 0,000 mm 0,0 UV-I 0 W/m 4,0 C 2,5 C 43,5 km/h (6 Bft) 100,00 %
05.03.2017 01:28 10,4 C 64 % 1000,8 hPa 0,0 l/m 21,6 km/h (4 Bft) W-NW 285 0 min 0,000 mm 0,0 UV-I 0 W/m 3,9 C 3,3 C 35,4 km/h (5 Bft) 100,00 %
05.03.2017 01:30 10,4 C 65 % 1000,8 hPa 0,0 l/m 21,3 km/h (4 Bft) W-NW 302 0 min 0,000 mm 0,0 UV-I 0 W/m 4,1 C 3,4 C 32,2 km/h (5 Bft) 98,11 %
05.03.2017 01:32 10,3 C 65 % 1000,9 hPa 0,0 l/m 22,7 km/h (4 Bft) W 262 0 min 0,000 mm 0,0 UV-I 0 W/m 4,0 C 2,9 C 37,0 km/h (5 Bft) 100,00 %
05.03.2017 01:34 10,2 C 66 % 1000,9 hPa 0,0 l/m 23,5 km/h (4 Bft) W-SW 255 0 min 0,000 mm 0,0 UV-I 0 W/m 4,1 C 2,5 C 32,2 km/h (5 Bft) 100,00 %
05.03.2017 01:36 10,1 C 67 % 1000,9 hPa 0,0 l/m 18,5 km/h (3 Bft) W 269 0 min 0,000 mm 0,0 UV-I 0 W/m 4,3 C 3,9 C 25,7 km/h (4 Bft) 100,00 %
05.03.2017 01:38 10,0 C 67 % 1000,9 hPa 0,0 l/m 21,6 km/h (4 Bft) W-SW 258 0 min 0,000 mm 0,0 UV-I 0 W/m 4,2 C 2,8 C 37,0 km/h (5 Bft) 100,00 %
05.03.2017 01:40 9,9 C 68 % 1001,0 hPa 0,0 l/m 24,9 km/h (4 Bft) W-SW 255 0 min 0,000 mm 0,0 UV-I 0 W/m 4,3 C 1,7 C 33,8 km/h (5 Bft) 100,00 %
05.03.2017 01:42 9,8 C 68 % 1001,0 hPa 0,0 l/m 24,2 km/h (4 Bft) W 272 0 min 0,000 mm 0,0 UV-I 0 W/m 4,2 C 1,8 C 41,8 km/h (6 Bft) 98,11 %
05.03.2017 01:44 9,7 C 69 % 1001,1 hPa 0,0 l/m 20,9 km/h (4 Bft) W 261 0 min 0,000 mm 0,0 UV-I 0 W/m 4,3 C 2,6 C 38,6 km/h (5 Bft) 100,00 %
05.03.2017 01:46 9,7 C 68 % 1001,3 hPa 0,0 l/m 25,5 km/h (4 Bft) W 281 0 min 0,000 mm 0,0 UV-I 0 W/m 4,1 C 1,3 C 38,6 km/h (5 Bft) 100,00 %
05.03.2017 01:48 9,7 C 69 % 1001,3 hPa 0,0 l/m 25,7 km/h (4 Bft) W 268 0 min 0,000 mm 0,0 UV-I 0 W/m 4,3 C 1,2 C 38,6 km/h (5 Bft) 100,00 %
05.03.2017 01:50 9,6 C 69 % 1001,3 hPa 0,0 l/m 20,5 km/h (4 Bft) W-SW 258 0 min 0,000 mm 0,0 UV-I 0 W/m 4,2 C 2,6 C 33,8 km/h (5 Bft) 100,00 %
05.03.2017 01:52 9,6 C 69 % 1001,4 hPa 0,0 l/m 19,6 km/h (3 Bft) W 264 0 min 0,000 mm 0,0 UV-I 0 W/m 4,2 C 2,9 C 27,4 km/h (4 Bft) 100,00 %
05.03.2017 01:54 9,5 C 69 % 1001,5 hPa 0,0 l/m 22,9 km/h (4 Bft) W 267 0 min 0,000 mm 0,0 UV-I 0 W/m 4,1 C 1,7 C 40,2 km/h (6 Bft) 100,00 %
05.03.2017 01:56 9,5 C 69 % 1001,6 hPa 0,0 l/m 21,2 km/h (4 Bft) W-NW 284 0 min 0,000 mm 0,0 UV-I 0 W/m 4,1 C 2,3 C 30,6 km/h (5 Bft) 98,00 %
05.03.2017 01:58 9,4 C 69 % 1001,7 hPa 0,0 l/m 17,7 km/h (3 Bft) W 269 0 min 0,000 mm 0,0 UV-I 0 W/m 4,0 C 3,3 C 29,0 km/h (5 Bft) 100,00 %
05.03.2017 02:00 9,5 C 69 % 1001,7 hPa 0,0 l/m 23,3 km/h (4 Bft) W 266 0 min 0,077 mm 0,0 UV-I 0 W/m 4,1 C 1,6 C 27,4 km/h (4 Bft) 97,56 %
05.03.2017 02:02 9,5 C 69 % 1001,9 hPa 0,0 l/m 21,4 km/h (4 Bft) W-SW 252 0 min 0,000 mm 0,0 UV-I 0 W/m 4,1 C 2,2 C 30,6 km/h (5 Bft) 100,00 %
05.03.2017 02:04 9,5 C 69 % 1002,0 hPa 0,0 l/m 19,4 km/h (3 Bft) W 271 0 min 0,000 mm 0,0 UV-I 0 W/m 4,1 C 2,8 C 27,4 km/h (4 Bft) 100,00 %
05.03.2017 02:06 9,5 C 69 % 1002,0 hPa 0,0 l/m 18,8 km/h (3 Bft) W-SW 253 0 min 0,000 mm 0,0 UV-I 0 W/m 4,1 C 3,1 C 35,4 km/h (5 Bft) 96,15 %
05.03.2017 02:09 9,6 C 68 % 1002,1 hPa 0,0 l/m 22,6 km/h (4 Bft) SW 215 0 min 0,000 mm 0,0 UV-I 0 W/m 4,0 C 2,0 C 32,2 km/h (5 Bft) 98,46 %
05.03.2017 02:10 9,6 C 68 % 1002,2 hPa 0,0 l/m 22,6 km/h (4 Bft) W-SW 239 0 min 0,000 mm 0,0 UV-I 0 W/m 4,0 C 2,0 C 29,0 km/h (5 Bft) 95,83 %
05.03.2017 02:12 9,6 C 67 % 1002,2 hPa 0,0 l/m 24,7 km/h (4 Bft) W 269 0 min 0,000 mm 0,0 UV-I 0 W/m 3,8 C 1,4 C 32,2 km/h (5 Bft) 100,00 %
05.03.2017 02:14 9,7 C 67 % 1002,3 hPa 0,0 l/m 23,3 km/h (4 Bft) W 260 0 min 0,000 mm 0,0 UV-I 0 W/m 3,9 C 1,9 C 33,8 km/h (5 Bft) 100,00 %
05.03.2017 02:16 9,7 C 66 % 1002,4 hPa 0,0 l/m 21,6 km/h (4 Bft) W-SW 257 0 min 0,000 mm 0,0 UV-I 0 W/m 3,7 C 2,4 C 32,2 km/h (5 Bft) 100,00 %
05.03.2017 02:18 9,7 C 66 % 1002,5 hPa 0,0 l/m 20,9 km/h (4 Bft) W-SW 246 0 min 0,000 mm 0,0 UV-I 0 W/m 3,7 C 2,6 C 32,2 km/h (5 Bft) 100,00 %
05.03.2017 02:20 9,7 C 66 % 1002,5 hPa 0,0 l/m 24,8 km/h (4 Bft) W-SW 245 0 min 0,000 mm 0,0 UV-I 0 W/m 3,7 C 1,5 C 40,2 km/h (6 Bft) 91,43 %
05.03.2017 02:22 9,7 C 66 % 1002,5 hPa 0,0 l/m 16,8 km/h (3 Bft) SW 232 0 min 0,000 mm 0,0 UV-I 0 W/m 3,7 C 4,0 C 35,4 km/h (5 Bft) 100,00 %
05.03.2017 02:24 9,7 C 66 % 1002,7 hPa 0,0 l/m 21,7 km/h (4 Bft) SW 226 0 min 0,000 mm 0,0 UV-I 0 W/m 3,7 C 2,4 C 30,6 km/h (5 Bft) 100,00 %
05.03.2017 02:26 9,6 C 66 % 1002,7 hPa 0,0 l/m 16,5 km/h (3 Bft) W-NW 296 0 min 0,000 mm 0,0 UV-I 0 W/m 3,6 C 4,0 C 29,0 km/h (5 Bft) 95,74 %
05.03.2017 02:28 9,7 C 66 % 1002,7 hPa 0,0 l/m 21,3 km/h (4 Bft) W-SW 257 0 min 0,000 mm 0,0 UV-I 0 W/m 3,7 C 2,5 C 27,4 km/h (4 Bft) 96,43 %
05.03.2017 02:30 9,7 C 66 % 1002,8 hPa 0,0 l/m 18,0 km/h (3 Bft) W-SW 241 0 min 0,000 mm 0,0 UV-I 0 W/m 3,7 C 3,6 C 25,7 km/h (4 Bft) 97,56 %
05.03.2017 02:32 9,6 C 67 % 1002,8 hPa 0,0 l/m 17,7 km/h (3 Bft) W-SW 258 0 min 0,000 mm 0,0 UV-I 0 W/m 3,8 C 3,6 C 29,0 km/h (5 Bft) 97,56 %
05.03.2017 02:34 9,6 C 67 % 1002,8 hPa 0,0 l/m 18,7 km/h (3 Bft) W 269 0 min 0,000 mm 0,0 UV-I 0 W/m 3,8 C 3,2 C 27,4 km/h (4 Bft) 98,00 %
05.03.2017 02:36 9,5 C 67 % 1002,9 hPa 0,0 l/m 15,2 km/h (3 Bft) W-SW 238 0 min 0,000 mm 0,0 UV-I 0 W/m 3,7 C 4,4 C 24,1 km/h (4 Bft) 98,11 %
05.03.2017 02:38 9,4 C 67 % 1002,8 hPa 0,0 l/m 17,4 km/h (3 Bft) W 271 0 min 0,000 mm 0,0 UV-I 0 W/m 3,6 C 3,4 C 33,8 km/h (5 Bft) 97,56 %
05.03.2017 02:40 9,4 C 67 % 1002,9 hPa 0,0 l/m 19,3 km/h (3 Bft) W-SW 257 0 min 0,000 mm 0,0 UV-I 0 W/m 3,6 C 2,7 C 27,4 km/h (4 Bft) 95,83 %
05.03.2017 02:42 9,4 C 67 % 1002,8 hPa 0,0 l/m 16,9 km/h (3 Bft) W-SW 240 0 min 0,000 mm 0,0 UV-I 0 W/m 3,6 C 3,6 C 24,1 km/h (4 Bft) 98,46 %
05.03.2017 02:44 9,3 C 67 % 1002,9 hPa 0,0 l/m 14,5 km/h (3 Bft) W-SW 238 0 min 0,000 mm 0,0 UV-I 0 W/m 3,5 C 4,5 C 22,5 km/h (4 Bft) 96,23 %
05.03.2017 02:46 9,3 C 67 % 1002,9 hPa 0,0 l/m 14,7 km/h (3 Bft) W-SW 243 0 min 0,000 mm 0,0 UV-I 0 W/m 3,5 C 4,4 C 19,3 km/h (3 Bft) 92,86 %
05.03.2017 02:48 9,3 C 67 % 1002,9 hPa 0,0 l/m 15,6 km/h (3 Bft) SW 215 0 min 0,000 mm 0,0 UV-I 0 W/m 3,5 C 4,0 C 25,7 km/h (4 Bft) 97,30 %
05.03.2017 02:50 9,2 C 68 % 1003,0 hPa 0,0 l/m 15,1 km/h (3 Bft) W-SW 242 0 min 0,000 mm 0,0 UV-I 0 W/m 3,6 C 4,1 C 24,1 km/h (4 Bft) 98,11 %
05.03.2017 02:52 9,1 C 68 % 1003,0 hPa 0,0 l/m 16,8 km/h (3 Bft) SW 230 0 min 0,000 mm 0,0 UV-I 0 W/m 3,5 C 3,3 C 29,0 km/h (5 Bft) 95,74 %
05.03.2017 02:54 9,1 C 67 % 1003,1 hPa 0,0 l/m 16,6 km/h (3 Bft) W-SW 243 0 min 0,000 mm 0,0 UV-I 0 W/m 3,3 C 3,4 C 30,6 km/h (5 Bft) 96,55 %
05.03.2017 02:56 9,1 C 67 % 1003,1 hPa 0,0 l/m 13,4 km/h (3 Bft) W 268 0 min 0,000 mm 0,0 UV-I 0 W/m 3,3 C 4,8 C 17,7 km/h (3 Bft) 98,59 %
05.03.2017 02:58 9,0 C 68 % 1003,2 hPa 0,0 l/m 12,1 km/h (2 Bft) SW 219 0 min 0,000 mm 0,0 UV-I 0 W/m 3,4 C 5,3 C 17,7 km/h (3 Bft) 97,56 %
05.03.2017 03:00 8,9 C 68 % 1003,2 hPa 0,0 l/m 12,7 km/h (3 Bft) SW 218 0 min 0,076 mm 0,0 UV-I 0 W/m 3,3 C 4,9 C 22,5 km/h (4 Bft) 100,00 %
05.03.2017 03:02 8,9 C 68 % 1003,3 hPa 0,0 l/m 14,4 km/h (3 Bft) SW 236 0 min 0,000 mm 0,0 UV-I 0 W/m 3,3 C 4,1 C 25,7 km/h (4 Bft) 100,00 %
05.03.2017 03:04 8,9 C 68 % 1003,3 hPa 0,0 l/m 15,4 km/h (3 Bft) W-SW 238 0 min 0,000 mm 0,0 UV-I 0 W/m 3,3 C 3,6 C 25,7 km/h (4 Bft) 98,00 %
05.03.2017 03:06 8,9 C 68 % 1003,3 hPa 0,0 l/m 15,1 km/h (3 Bft) SW 225 0 min 0,000 mm 0,0 UV-I 0 W/m 3,3 C 3,8 C 22,5 km/h (4 Bft) 97,14 %
05.03.2017 03:08 8,8 C 68 % 1003,4 hPa 0,0 l/m 18,8 km/h (3 Bft) SW 221 0 min 0,000 mm 0,0 UV-I 0 W/m 3,2 C 2,2 C 27,4 km/h (4 Bft) 100,00 %
05.03.2017 03:10 8,8 C 68 % 1003,4 hPa 0,0 l/m 18,2 km/h (3 Bft) S-SW 211 0 min 0,000 mm 0,0 UV-I 0 W/m 3,2 C 2,4 C 22,5 km/h (4 Bft) 96,00 %
05.03.2017 03:12 8,8 C 68 % 1003,4 hPa 0,0 l/m 21,5 km/h (4 Bft) SW 223 0 min 0,000 mm 0,0 UV-I 0 W/m 3,2 C 1,2 C 30,6 km/h (5 Bft) 100,00 %
05.03.2017 03:14 8,7 C 68 % 1003,4 hPa 0,0 l/m 18,2 km/h (3 Bft) SW 217 0 min 0,000 mm 0,0 UV-I 0 W/m 3,1 C 2,3 C 32,2 km/h (5 Bft) 100,00 %
05.03.2017 03:16 8,7 C 68 % 1003,5 hPa 0,0 l/m 17,0 km/h (3 Bft) SW 218 0 min 0,000 mm 0,0 UV-I 0 W/m 3,1 C 2,7 C 22,5 km/h (4 Bft) 96,00 %
05.03.2017 03:18 8,7 C 68 % 1003,5 hPa 0,0 l/m 16,1 km/h (3 Bft) W-SW 238 0 min 0,000 mm 0,0 UV-I 0 W/m 3,1 C 3,1 C 24,1 km/h (4 Bft) 100,00 %
05.03.2017 03:20 8,6 C 69 % 1003,6 hPa 0,0 l/m 13,6 km/h (3 Bft) W-SW 242 0 min 0,000 mm 0,0 UV-I 0 W/m 3,2 C 4,1 C 24,1 km/h (4 Bft) 100,00 %
05.03.2017 03:22 8,6 C 69 % 1003,6 hPa 0,0 l/m 17,7 km/h (3 Bft) W-SW 246 0 min 0,000 mm 0,0 UV-I 0 W/m 3,2 C 2,3 C 24,1 km/h (4 Bft) 100,00 %
05.03.2017 03:24 8,5 C 69 % 1003,6 hPa 0,0 l/m 21,6 km/h (4 Bft) SW 219 0 min 0,000 mm 0,0 UV-I 0 W/m 3,1 C 0,8 C 29,0 km/h (5 Bft) 95,45 %
05.03.2017 03:26 8,5 C 69 % 1003,7 hPa 0,0 l/m 17,9 km/h (3 Bft) SW 229 0 min 0,000 mm 0,0 UV-I 0 W/m 3,1 C 2,1 C 25,7 km/h (4 Bft) 96,72 %
05.03.2017 03:28 8,5 C 68 % 1003,6 hPa 0,0 l/m 19,5 km/h (3 Bft) W-SW 242 0 min 0,000 mm 0,0 UV-I 0 W/m 2,9 C 1,5 C 27,4 km/h (4 Bft) 97,62 %
05.03.2017 03:30 8,5 C 68 % 1003,7 hPa 0,0 l/m 18,0 km/h (3 Bft) W-SW 243 0 min 0,000 mm 0,0 UV-I 0 W/m 2,9 C 2,1 C 22,5 km/h (4 Bft) 94,34 %
05.03.2017 03:32 8,5 C 68 % 1003,7 hPa 0,0 l/m 19,0 km/h (3 Bft) W-SW 250 0 min 0,000 mm 0,0 UV-I 0 W/m 2,9 C 1,7 C 35,4 km/h (5 Bft) 95,45 %
05.03.2017 03:34 8,5 C 67 % 1003,8 hPa 0,0 l/m 16,4 km/h (3 Bft) S-SW 213 0 min 0,000 mm 0,0 UV-I 0 W/m 2,7 C 2,7 C 27,4 km/h (4 Bft) 97,73 %
05.03.2017 03:36 8,5 C 67 % 1003,8 hPa 0,0 l/m 17,9 km/h (3 Bft) W-SW 255 0 min 0,000 mm 0,0 UV-I 0 W/m 2,7 C 2,1 C 29,0 km/h (5 Bft) 98,11 %
05.03.2017 03:38 8,5 C 67 % 1003,8 hPa 0,0 l/m 17,4 km/h (3 Bft) S-SW 211 0 min 0,000 mm 0,0 UV-I 0 W/m 2,7 C 2,3 C 30,6 km/h (5 Bft) 97,37 %
05.03.2017 03:40 8,5 C 67 % 1003,9 hPa 0,0 l/m 17,8 km/h (3 Bft) W 261 0 min 0,000 mm 0,0 UV-I 0 W/m 2,7 C 2,2 C 27,4 km/h (4 Bft) 98,11 %
05.03.2017 03:42 8,4 C 67 % 1004,0 hPa 0,0 l/m 20,6 km/h (4 Bft) W-SW 237 0 min 0,000 mm 0,0 UV-I 0 W/m 2,6 C 1,0 C 27,4 km/h (4 Bft) 97,37 %
05.03.2017 03:44 8,5 C 67 % 1003,9 hPa 0,0 l/m 19,1 km/h (3 Bft) W-SW 255 0 min 0,000 mm 0,0 UV-I 0 W/m 2,7 C 1,7 C 27,4 km/h (4 Bft) 96,23 %
05.03.2017 03:46 8,4 C 67 % 1004,0 hPa 0,0 l/m 14,6 km/h (3 Bft) W-SW 238 0 min 0,000 mm 0,0 UV-I 0 W/m 2,6 C 3,4 C 20,9 km/h (4 Bft) 96,23 %
05.03.2017 03:48 8,4 C 67 % 1004,1 hPa 0,0 l/m 13,7 km/h (3 Bft) W-SW 258 0 min 0,000 mm 0,0 UV-I 0 W/m 2,6 C 3,8 C 19,3 km/h (3 Bft) 94,74 %
05.03.2017 03:50 8,4 C 67 % 1004,1 hPa 0,0 l/m 16,5 km/h (3 Bft) W-SW 256 0 min 0,000 mm 0,0 UV-I 0 W/m 2,6 C 2,5 C 24,1 km/h (4 Bft) 95,74 %
05.03.2017 03:52 8,4 C 66 % 1004,1 hPa 0,0 l/m 18,4 km/h (3 Bft) SW 224 0 min 0,000 mm 0,0 UV-I 0 W/m 2,4 C 1,8 C 30,6 km/h (5 Bft) 93,62 %
05.03.2017 03:54 8,4 C 66 % 1004,2 hPa 0,0 l/m 17,3 km/h (3 Bft) W-SW 250 0 min 0,000 mm 0,0 UV-I 0 W/m 2,4 C 2,2 C 24,1 km/h (4 Bft) 98,00 %
05.03.2017 03:56 8,4 C 66 % 1004,2 hPa 0,0 l/m 15,8 km/h (3 Bft) SW 235 0 min 0,000 mm 0,0 UV-I 0 W/m 2,4 C 2,8 C 22,5 km/h (4 Bft) 98,00 %
05.03.2017 03:58 8,4 C 66 % 1004,1 hPa 0,0 l/m 17,3 km/h (3 Bft) W-SW 249 0 min 0,000 mm 0,0 UV-I 0 W/m 2,4 C 2,2 C 22,5 km/h (4 Bft) 97,56 %
05.03.2017 04:00 8,3 C 66 % 1004,2 hPa 0,0 l/m 15,1 km/h (3 Bft) W-SW 247 0 min 0,051 mm 0,0 UV-I 0 W/m 2,3 C 3,0 C 20,9 km/h (4 Bft) 98,11 %
05.03.2017 04:02 8,3 C 66 % 1004,2 hPa 0,0 l/m 16,1 km/h (3 Bft) W 263 0 min 0,000 mm 0,0 UV-I 0 W/m 2,3 C 2,6 C 20,9 km/h (4 Bft) 100,00 %
05.03.2017 04:04 8,2 C 66 % 1004,3 hPa 0,0 l/m 9,8 km/h (2 Bft) W-SW 242 0 min 0,000 mm 0,0 UV-I 0 W/m 2,2 C 5,7 C 14,5 km/h (3 Bft) 95,24 %
05.03.2017 04:06 8,2 C 67 % 1004,4 hPa 0,0 l/m 10,2 km/h (2 Bft) W-SW 254 0 min 0,000 mm 0,0 UV-I 0 W/m 2,4 C 5,5 C 14,5 km/h (3 Bft) 97,87 %
05.03.2017 04:08 8,1 C 67 % 1004,4 hPa 0,0 l/m 8,3 km/h (2 Bft) SW 236 0 min 0,000 mm 0,0 UV-I 0 W/m 2,3 C 6,6 C 14,5 km/h (3 Bft) 98,11 %
05.03.2017 04:10 8,1 C 67 % 1004,4 hPa 0,0 l/m 9,1 km/h (2 Bft) W 271 0 min 0,000 mm 0,0 UV-I 0 W/m 2,3 C 6,1 C 14,5 km/h (3 Bft) 100,00 %
05.03.2017 04:12 8,1 C 68 % 1004,4 hPa 0,0 l/m 7,4 km/h (2 Bft) W-SW 244 0 min 0,000 mm 0,0 UV-I 0 W/m 2,6 C 7,3 C 14,5 km/h (3 Bft) 95,24 %
05.03.2017 04:14 8,0 C 68 % 1004,3 hPa 0,0 l/m 12,1 km/h (2 Bft) W 261 0 min 0,000 mm 0,0 UV-I 0 W/m 2,5 C 4,2 C 19,3 km/h (3 Bft) 96,23 %
05.03.2017 04:16 8,0 C 68 % 1004,3 hPa 0,0 l/m 12,2 km/h (2 Bft) SW 236 0 min 0,000 mm 0,0 UV-I 0 W/m 2,5 C 4,1 C 17,7 km/h (3 Bft) 97,37 %
05.03.2017 04:18 8,0 C 68 % 1004,3 hPa 0,0 l/m 9,1 km/h (2 Bft) SW 229 0 min 0,000 mm 0,0 UV-I 0 W/m 2,5 C 6,0 C 14,5 km/h (3 Bft) 98,11 %
05.03.2017 04:20 7,9 C 68 % 1004,4 hPa 0,0 l/m 9,8 km/h (2 Bft) W-SW 250 0 min 0,000 mm 0,0 UV-I 0 W/m 2,4 C 5,4 C 12,9 km/h (3 Bft) 97,56 %
05.03.2017 04:22 7,9 C 68 % 1004,5 hPa 0,0 l/m 9,6 km/h (2 Bft) W-SW 250 0 min 0,000 mm 0,0 UV-I 0 W/m 2,4 C 5,5 C 12,9 km/h (3 Bft) 97,14 %
05.03.2017 04:24 7,9 C 68 % 1004,4 hPa 0,0 l/m 13,7 km/h (3 Bft) W-SW 237 0 min 0,000 mm 0,0 UV-I 0 W/m 2,4 C 3,2 C 19,3 km/h (3 Bft) 98,21 %
05.03.2017 04:26 7,9 C 69 % 1004,4 hPa 0,0 l/m 8,2 km/h (2 Bft) SW 233 0 min 0,000 mm 0,0 UV-I 0 W/m 2,6 C 6,5 C 11,3 km/h (2 Bft) 97,73 %
05.03.2017 04:28 7,9 C 69 % 1004,4 hPa 0,0 l/m 8,8 km/h (2 Bft) SW 221 0 min 0,000 mm 0,0 UV-I 0 W/m 2,6 C 6,1 C 11,3 km/h (2 Bft) 97,22 %
05.03.2017 04:30 7,8 C 69 % 1004,4 hPa 0,0 l/m 7,2 km/h (2 Bft) SW 215 0 min 0,000 mm 0,0 UV-I 0 W/m 2,5 C 7,2 C 11,3 km/h (2 Bft) 95,71 %
05.03.2017 04:32 7,8 C 69 % 1004,4 hPa 0,0 l/m 9,8 km/h (2 Bft) S-SW 209 0 min 0,000 mm 0,0 UV-I 0 W/m 2,5 C 5,3 C 17,7 km/h (3 Bft) 90,91 %
05.03.2017 04:34 7,8 C 69 % 1004,5 hPa 0,0 l/m 11,7 km/h (2 Bft) SW 219 0 min 0,000 mm 0,0 UV-I 0 W/m 2,5 C 4,1 C 17,7 km/h (3 Bft) 94,00 %
05.03.2017 04:36 7,8 C 69 % 1004,5 hPa 0,0 l/m 12,6 km/h (3 Bft) W 281 0 min 0,000 mm 0,0 UV-I 0 W/m 2,5 C 3,7 C 19,3 km/h (3 Bft) 95,45 %
05.03.2017 04:38 7,9 C 68 % 1004,4 hPa 0,0 l/m 11,4 km/h (2 Bft) SW 222 0 min 0,000 mm 0,0 UV-I 0 W/m 2,4 C 4,4 C 19,3 km/h (3 Bft) 97,73 %
05.03.2017 04:40 7,9 C 68 % 1004,4 hPa 0,0 l/m 9,7 km/h (2 Bft) SW 226 0 min 0,000 mm 0,0 UV-I 0 W/m 2,4 C 5,5 C 14,5 km/h (3 Bft) 97,78 %
05.03.2017 04:42 7,9 C 68 % 1004,4 hPa 0,0 l/m 9,2 km/h (2 Bft) S-SW 203 0 min 0,000 mm 0,0 UV-I 0 W/m 2,4 C 5,8 C 14,5 km/h (3 Bft) 98,08 %
05.03.2017 04:44 7,9 C 69 % 1004,4 hPa 0,0 l/m 7,9 km/h (2 Bft) SW 229 0 min 0,000 mm 0,0 UV-I 0 W/m 2,6 C 6,7 C 11,3 km/h (2 Bft) 98,00 %
05.03.2017 04:46 7,9 C 69 % 1004,4 hPa 0,0 l/m 7,2 km/h (2 Bft) SW 221 0 min 0,000 mm 0,0 UV-I 0 W/m 2,6 C 7,3 C 11,3 km/h (2 Bft) 97,62 %
05.03.2017 04:48 7,8 C 70 % 1004,5 hPa 0,0 l/m 7,1 km/h (2 Bft) W-SW 237 0 min 0,000 mm 0,0 UV-I 0 W/m 2,7 C 7,2 C 11,3 km/h (2 Bft) 96,00 %
05.03.2017 04:50 7,8 C 70 % 1004,6 hPa 0,0 l/m 10,3 km/h (2 Bft) W-SW 244 0 min 0,000 mm 0,0 UV-I 0 W/m 2,7 C 5,0 C 16,1 km/h (3 Bft) 97,56 %
05.03.2017 04:52 7,7 C 71 % 1004,6 hPa 0,0 l/m 8,7 km/h (2 Bft) SW 226 0 min 0,000 mm 0,0 UV-I 0 W/m 2,8 C 5,9 C 14,5 km/h (3 Bft) 97,73 %
05.03.2017 04:54 7,7 C 71 % 1004,6 hPa 0,0 l/m 8,2 km/h (2 Bft) SW 219 0 min 0,000 mm 0,0 UV-I 0 W/m 2,8 C 6,3 C 12,9 km/h (3 Bft) 96,43 %
05.03.2017 04:56 7,7 C 72 % 1004,6 hPa 0,0 l/m 8,8 km/h (2 Bft) W-SW 252 0 min 0,000 mm 0,0 UV-I 0 W/m 3,0 C 5,9 C 12,9 km/h (3 Bft) 97,73 %
05.03.2017 04:58 7,6 C 72 % 1004,6 hPa 0,0 l/m 10,0 km/h (2 Bft) SW 227 0 min 0,000 mm 0,0 UV-I 0 W/m 2,9 C 4,9 C 12,9 km/h (3 Bft) 98,00 %
05.03.2017 05:00 7,6 C 72 % 1004,6 hPa 0,0 l/m 10,6 km/h (2 Bft) SW 232 0 min 0,025 mm 0,0 UV-I 0 W/m 2,9 C 4,6 C 16,1 km/h (3 Bft) 100,00 %
05.03.2017 05:02 7,6 C 71 % 1004,6 hPa 0,0 l/m 9,4 km/h (2 Bft) SW 236 0 min 0,000 mm 0,0 UV-I 0 W/m 2,7 C 5,3 C 17,7 km/h (3 Bft) 97,37 %
05.03.2017 05:04 7,6 C 72 % 1004,5 hPa 0,0 l/m 8,7 km/h (2 Bft) W-SW 248 0 min 0,000 mm 0,0 UV-I 0 W/m 2,9 C 5,8 C 14,5 km/h (3 Bft) 97,73 %
05.03.2017 05:06 7,5 C 72 % 1004,7 hPa 0,0 l/m 9,3 km/h (2 Bft) S-SW 211 0 min 0,000 mm 0,0 UV-I 0 W/m 2,8 C 5,3 C 14,5 km/h (3 Bft) 100,00 %
05.03.2017 05:08 7,5 C 72 % 1004,7 hPa 0,0 l/m 10,9 km/h (2 Bft) SW 236 0 min 0,000 mm 0,0 UV-I 0 W/m 2,8 C 4,3 C 16,1 km/h (3 Bft) 100,00 %
05.03.2017 05:10 7,4 C 72 % 1004,7 hPa 0,0 l/m 10,4 km/h (2 Bft) SW 227 0 min 0,000 mm 0,0 UV-I 0 W/m 2,7 C 4,5 C 16,1 km/h (3 Bft) 100,00 %
05.03.2017 05:12 7,4 C 72 % 1004,7 hPa 0,0 l/m 11,7 km/h (2 Bft) S-SW 213 0 min 0,000 mm 0,0 UV-I 0 W/m 2,7 C 3,7 C 16,1 km/h (3 Bft) 100,00 %
05.03.2017 05:14 7,4 C 72 % 1004,6 hPa 0,0 l/m 11,9 km/h (2 Bft) S-SW 210 0 min 0,000 mm 0,0 UV-I 0 W/m 2,7 C 3,6 C 17,7 km/h (3 Bft) 96,61 %
05.03.2017 05:16 7,4 C 72 % 1004,7 hPa 0,0 l/m 9,9 km/h (2 Bft) W-SW 238 0 min 0,000 mm 0,0 UV-I 0 W/m 2,7 C 4,8 C 14,5 km/h (3 Bft) 100,00 %
05.03.2017 05:18 7,3 C 72 % 1004,7 hPa 0,0 l/m 9,6 km/h (2 Bft) SW 236 0 min 0,000 mm 0,0 UV-I 0 W/m 2,6 C 4,9 C 16,1 km/h (3 Bft) 98,21 %
05.03.2017 05:20 7,3 C 72 % 1004,8 hPa 0,0 l/m 10,7 km/h (2 Bft) W-SW 239 0 min 0,000 mm 0,0 UV-I 0 W/m 2,6 C 4,2 C 17,7 km/h (3 Bft) 100,00 %
05.03.2017 05:22 7,3 C 72 % 1004,9 hPa 0,0 l/m 10,9 km/h (2 Bft) W-SW 237 0 min 0,000 mm 0,0 UV-I 0 W/m 2,6 C 4,0 C 14,5 km/h (3 Bft) 98,08 %
05.03.2017 05:24 7,3 C 72 % 1004,9 hPa 0,0 l/m 12,0 km/h (2 Bft) SW 222 0 min 0,000 mm 0,0 UV-I 0 W/m 2,6 C 3,4 C 17,7 km/h (3 Bft) 97,22 %
05.03.2017 05:26 7,3 C 72 % 1004,9 hPa 0,0 l/m 11,6 km/h (2 Bft) SW 232 0 min 0,000 mm 0,0 UV-I 0 W/m 2,6 C 3,6 C 17,7 km/h (3 Bft) 100,00 %
05.03.2017 05:28 7,3 C 72 % 1005,0 hPa 0,0 l/m 12,9 km/h (3 Bft) W-SW 251 0 min 0,000 mm 0,0 UV-I 0 W/m 2,6 C 2,9 C 19,3 km/h (3 Bft) 100,00 %
05.03.2017 05:30 7,3 C 72 % 1005,0 hPa 0,0 l/m 13,2 km/h (3 Bft) SW 217 0 min 0,000 mm 0,0 UV-I 0 W/m 2,6 C 2,8 C 19,3 km/h (3 Bft) 100,00 %
05.03.2017 05:32 7,3 C 72 % 1005,0 hPa 0,0 l/m 14,2 km/h (3 Bft) SW 223 0 min 0,000 mm 0,0 UV-I 0 W/m 2,6 C 2,2 C 20,9 km/h (4 Bft) 100,00 %
05.03.2017 05:34 7,3 C 71 % 1004,9 hPa 0,0 l/m 15,3 km/h (3 Bft) SW 224 0 min 0,000 mm 0,0 UV-I 0 W/m 2,4 C 1,7 C 20,9 km/h (4 Bft) 100,00 %
05.03.2017 05:36 7,4 C 71 % 1004,9 hPa 0,0 l/m 13,1 km/h (3 Bft) W-SW 243 0 min 0,000 mm 0,0 UV-I 0 W/m 2,5 C 2,9 C 20,9 km/h (4 Bft) 100,00 %
05.03.2017 05:38 7,4 C 70 % 1004,8 hPa 0,0 l/m 12,4 km/h (3 Bft) W-SW 248 0 min 0,000 mm 0,0 UV-I 0 W/m 2,3 C 3,3 C 14,5 km/h (3 Bft) 100,00 %
05.03.2017 05:40 7,4 C 70 % 1004,8 hPa 0,0 l/m 10,5 km/h (2 Bft) SW 236 0 min 0,000 mm 0,0 UV-I 0 W/m 2,3 C 4,4 C 16,1 km/h (3 Bft) 100,00 %
05.03.2017 05:42 7,4 C 70 % 1005,0 hPa 0,0 l/m 9,8 km/h (2 Bft) SW 217 0 min 0,000 mm 0,0 UV-I 0 W/m 2,3 C 4,9 C 14,5 km/h (3 Bft) 100,00 %
05.03.2017 05:44 7,4 C 69 % 1005,0 hPa 0,0 l/m 11,1 km/h (2 Bft) SW 218 0 min 0,000 mm 0,0 UV-I 0 W/m 2,1 C 4,0 C 17,7 km/h (3 Bft) 100,00 %
05.03.2017 05:46 7,4 C 69 % 1005,1 hPa 0,0 l/m 13,0 km/h (3 Bft) SW 225 0 min 0,000 mm 0,0 UV-I 0 W/m 2,1 C 3,0 C 17,7 km/h (3 Bft) 98,00 %
05.03.2017 05:48 7,4 C 69 % 1005,0 hPa 0,0 l/m 12,0 km/h (2 Bft) SW 228 0 min 0,000 mm 0,0 UV-I 0 W/m 2,1 C 3,5 C 17,7 km/h (3 Bft) 100,00 %
05.03.2017 05:50 7,4 C 70 % 1005,1 hPa 0,0 l/m 10,4 km/h (2 Bft) S-SW 204 0 min 0,000 mm 0,0 UV-I 0 W/m 2,3 C 4,5 C 16,1 km/h (3 Bft) 100,00 %
05.03.2017 05:52 7,4 C 70 % 1005,3 hPa 0,0 l/m 10,7 km/h (2 Bft) SW 225 0 min 0,000 mm 0,0 UV-I 0 W/m 2,3 C 4,3 C 16,1 km/h (3 Bft) 98,11 %
05.03.2017 05:54 7,4 C 70 % 1005,3 hPa 0,0 l/m 9,4 km/h (2 Bft) S-SW 199 0 min 0,000 mm 0,0 UV-I 0 W/m 2,3 C 5,1 C 12,9 km/h (3 Bft) 100,00 %
05.03.2017 05:56 7,3 C 71 % 1005,3 hPa 0,0 l/m 8,0 km/h (2 Bft) W-SW 252 0 min 0,000 mm 0,0 UV-I 0 W/m 2,4 C 6,0 C 12,9 km/h (3 Bft) 100,00 %
05.03.2017 05:58 7,3 C 71 % 1005,4 hPa 0,0 l/m 9,7 km/h (2 Bft) SW 227 0 min 0,000 mm 0,0 UV-I 0 W/m 2,4 C 4,8 C 14,5 km/h (3 Bft) 100,00 %
05.03.2017 06:00 7,3 C 71 % 1005,4 hPa 0,0 l/m 8,3 km/h (2 Bft) SW 223 0 min 0,025 mm 0,0 UV-I 0 W/m 2,4 C 5,8 C 14,5 km/h (3 Bft) 97,87 %
05.03.2017 06:02 7,2 C 71 % 1005,4 hPa 0,0 l/m 7,6 km/h (2 Bft) W-SW 240 0 min 0,000 mm 0,0 UV-I 0 W/m 2,3 C 6,2 C 12,9 km/h (3 Bft) 100,00 %
05.03.2017 06:04 7,2 C 72 % 1005,4 hPa 0,0 l/m 7,8 km/h (2 Bft) W-SW 255 0 min 0,000 mm 0,0 UV-I 0 W/m 2,5 C 6,1 C 11,3 km/h (2 Bft) 100,00 %
05.03.2017 06:06 7,2 C 72 % 1005,4 hPa 0,0 l/m 9,6 km/h (2 Bft) W-SW 250 0 min 0,000 mm 0,0 UV-I 0 W/m 2,5 C 4,8 C 14,5 km/h (3 Bft) 100,00 %
05.03.2017 06:08 7,1 C 72 % 1005,4 hPa 0,0 l/m 9,1 km/h (2 Bft) SW 231 0 min 0,000 mm 0,0 UV-I 0 W/m 2,4 C 5,0 C 12,9 km/h (3 Bft) 96,23 %
05.03.2017 06:10 7,2 C 71 % 1005,4 hPa 0,0 l/m 10,1 km/h (2 Bft) W-SW 252 0 min 0,000 mm 0,0 UV-I 0 W/m 2,3 C 4,4 C 14,5 km/h (3 Bft) 100,00 %
05.03.2017 06:12 7,2 C 71 % 1005,4 hPa 0,0 l/m 11,4 km/h (2 Bft) SW 232 0 min 0,000 mm 0,0 UV-I 0 W/m 2,3 C 3,6 C 17,7 km/h (3 Bft) 100,00 %
05.03.2017 06:14 7,3 C 70 % 1005,4 hPa 0,0 l/m 10,2 km/h (2 Bft) W-SW 250 0 min 0,000 mm 0,0 UV-I 0 W/m 2,2 C 4,5 C 17,7 km/h (3 Bft) 100,00 %
05.03.2017 06:16 7,3 C 70 % 1005,4 hPa 0,0 l/m 7,2 km/h (2 Bft) W-SW 249 0 min 0,000 mm 0,0 UV-I 0 W/m 2,2 C 6,7 C 11,3 km/h (2 Bft) 100,00 %
05.03.2017 06:18 7,3 C 70 % 1005,4 hPa 0,0 l/m 10,0 km/h (2 Bft) W-SW 253 0 min 0,000 mm 0,0 UV-I 0 W/m 2,2 C 4,6 C 14,5 km/h (3 Bft) 100,00 %
05.03.2017 06:20 7,3 C 71 % 1005,4 hPa 0,0 l/m 13,2 km/h (3 Bft) W-SW 253 0 min 0,000 mm 0,0 UV-I 0 W/m 2,4 C 2,8 C 19,3 km/h (3 Bft) 100,00 %
05.03.2017 06:22 7,3 C 70 % 1005,4 hPa 0,0 l/m 13,2 km/h (3 Bft) W-SW 245 0 min 0,000 mm 0,0 UV-I 0 W/m 2,2 C 2,8 C 19,3 km/h (3 Bft) 100,00 %
05.03.2017 06:24 7,4 C 69 % 1005,4 hPa 0,0 l/m 10,3 km/h (2 Bft) W-SW 256 0 min 0,000 mm 0,0 UV-I 0 W/m 2,1 C 4,5 C 14,5 km/h (3 Bft) 100,00 %
05.03.2017 06:26 7,3 C 70 % 1005,4 hPa 0,0 l/m 9,9 km/h (2 Bft) W 259 0 min 0,000 mm 0,0 UV-I 0 W/m 2,2 C 4,7 C 14,5 km/h (3 Bft) 100,00 %
05.03.2017 06:28 7,3 C 70 % 1005,5 hPa 0,0 l/m 8,5 km/h (2 Bft) SW 224 0 min 0,000 mm 0,0 UV-I 0 W/m 2,2 C 5,6 C 11,3 km/h (2 Bft) 100,00 %
05.03.2017 06:30 7,3 C 70 % 1005,6 hPa 0,0 l/m 8,9 km/h (2 Bft) SW 236 0 min 0,000 mm 0,0 UV-I 0 W/m 2,2 C 5,4 C 12,9 km/h (3 Bft) 100,00 %
05.03.2017 06:32 7,2 C 70 % 1005,6 hPa 0,0 l/m 8,2 km/h (2 Bft) W-SW 240 0 min 0,000 mm 0,0 UV-I 5 W/m 2,1 C 5,8 C 14,5 km/h (3 Bft) 97,56 %
05.03.2017 06:34 7,2 C 71 % 1005,6 hPa 0,0 l/m 10,1 km/h (2 Bft) W-SW 238 0 min 0,000 mm 0,0 UV-I 5 W/m 2,3 C 4,4 C 16,1 km/h (3 Bft) 98,00 %
05.03.2017 06:36 7,1 C 71 % 1005,6 hPa 0,0 l/m 9,6 km/h (2 Bft) SW 214 0 min 0,000 mm 0,0 UV-I 5 W/m 2,2 C 4,7 C 12,9 km/h (3 Bft) 100,00 %
05.03.2017 06:38 7,1 C 71 % 1005,6 hPa 0,0 l/m 11,3 km/h (2 Bft) S-SW 202 0 min 0,000 mm 0,0 UV-I 5 W/m 2,2 C 3,6 C 19,3 km/h (3 Bft) 100,00 %
05.03.2017 06:40 7,1 C 71 % 1005,6 hPa 0,0 l/m 11,5 km/h (2 Bft) W-SW 240 0 min 0,000 mm 0,0 UV-I 7 W/m 2,2 C 3,5 C 17,7 km/h (3 Bft) 97,87 %
05.03.2017 06:42 7,1 C 70 % 1005,6 hPa 0,0 l/m 11,6 km/h (2 Bft) SW 232 0 min 0,000 mm 0,0 UV-I 8 W/m 2,0 C 3,4 C 19,3 km/h (3 Bft) 97,56 %
05.03.2017 06:44 7,1 C 70 % 1005,6 hPa 0,0 l/m 11,3 km/h (2 Bft) SW 215 0 min 0,000 mm 0,0 UV-I 10 W/m 2,0 C 3,6 C 17,7 km/h (3 Bft) 98,21 %
05.03.2017 06:46 7,2 C 70 % 1005,6 hPa 0,0 l/m 11,0 km/h (2 Bft) W-SW 246 0 min 0,000 mm 0,0 UV-I 12 W/m 2,1 C 3,9 C 17,7 km/h (3 Bft) 95,45 %
05.03.2017 06:48 7,2 C 69 % 1005,6 hPa 0,0 l/m 8,3 km/h (2 Bft) W-SW 258 2 min 0,000 mm 0,0 UV-I 14 W/m 1,9 C 5,7 C 11,3 km/h (2 Bft) 98,00 %
05.03.2017 06:50 7,2 C 69 % 1005,7 hPa 0,0 l/m 6,4 km/h (2 Bft) W-SW 255 2 min 0,000 mm 0,0 UV-I 16 W/m 1,9 C 7,2 C 8,0 km/h (2 Bft) 95,74 %
05.03.2017 06:52 7,2 C 69 % 1005,6 hPa 0,0 l/m 6,4 km/h (2 Bft) W 265 2 min 0,000 mm 0,0 UV-I 19 W/m 1,9 C 7,2 C 11,3 km/h (2 Bft) 98,11 %
05.03.2017 06:54 7,2 C 69 % 1005,7 hPa 0,0 l/m 5,6 km/h (1 Bft) W-SW 238 2 min 0,000 mm 0,0 UV-I 21 W/m 1,9 C 7,2 C 9,7 km/h (2 Bft) 97,37 %
05.03.2017 06:56 7,1 C 69 % 1005,7 hPa 0,0 l/m 8,0 km/h (2 Bft) W 263 2 min 0,000 mm 0,0 UV-I 23 W/m 1,8 C 5,8 C 11,3 km/h (2 Bft) 98,00 %
05.03.2017 06:58 7,1 C 69 % 1005,8 hPa 0,0 l/m 6,2 km/h (2 Bft) W-SW 243 0 min 0,000 mm 0,0 UV-I 25 W/m 1,8 C 7,1 C 11,3 km/h (2 Bft) 98,00 %
05.03.2017 07:00 7,1 C 69 % 1005,8 hPa 0,0 l/m 4,7 km/h (1 Bft) SW 231 0 min 0,026 mm 0,0 UV-I 26 W/m 1,8 C 7,1 C 9,7 km/h (2 Bft) 97,56 %
05.03.2017 07:02 7,2 C 69 % 1005,8 hPa 0,0 l/m 6,3 km/h (2 Bft) SW 229 0 min 0,000 mm 0,0 UV-I 26 W/m 1,9 C 7,2 C 11,3 km/h (2 Bft) 95,74 %
05.03.2017 07:04 7,2 C 69 % 1006,0 hPa 0,0 l/m 6,1 km/h (2 Bft) SW 233 0 min 0,000 mm 0,0 UV-I 26 W/m 1,9 C 7,2 C 9,7 km/h (2 Bft) 97,73 %
05.03.2017 07:06 7,2 C 68 % 1006,0 hPa 0,0 l/m 5,7 km/h (1 Bft) SW 223 0 min 0,000 mm 0,0 UV-I 28 W/m 1,7 C 7,2 C 8,0 km/h (2 Bft) 98,00 %
05.03.2017 07:08 7,2 C 68 % 1006,1 hPa 0,0 l/m 5,5 km/h (1 Bft) SW 231 0 min 0,000 mm 0,0 UV-I 31 W/m 1,7 C 7,2 C 8,0 km/h (2 Bft) 95,45 %
05.03.2017 07:10 7,2 C 68 % 1006,2 hPa 0,0 l/m 4,9 km/h (1 Bft) SW 225 0 min 0,000 mm 0,0 UV-I 38 W/m 1,7 C 7,2 C 6,4 km/h (2 Bft) 97,87 %
05.03.2017 07:12 7,2 C 69 % 1006,2 hPa 0,0 l/m 5,2 km/h (1 Bft) SW 223 2 min 0,000 mm 0,0 UV-I 49 W/m 1,9 C 7,2 C 6,4 km/h (2 Bft) 97,87 %
05.03.2017 07:14 7,1 C 69 % 1006,1 hPa 0,0 l/m 7,0 km/h (2 Bft) W-SW 246 2 min 0,000 mm 0,0 UV-I 51 W/m 1,8 C 6,6 C 11,3 km/h (2 Bft) 98,00 %
05.03.2017 07:16 7,1 C 69 % 1006,2 hPa 0,0 l/m 4,8 km/h (1 Bft) W-SW 246 2 min 0,000 mm 0,0 UV-I 70 W/m 1,8 C 7,1 C 6,4 km/h (2 Bft) 98,00 %
05.03.2017 07:18 7,1 C 69 % 1006,1 hPa 0,0 l/m 4,2 km/h (1 Bft) W-SW 237 2 min 0,000 mm 0,0 UV-I 92 W/m 1,8 C 7,1 C 6,4 km/h (2 Bft) 100,00 %
05.03.2017 07:20 7,1 C 69 % 1006,1 hPa 0,0 l/m 4,6 km/h (1 Bft) W-SW 252 2 min 0,000 mm 0,0 UV-I 81 W/m 1,8 C 7,1 C 6,4 km/h (2 Bft) 100,00 %
05.03.2017 07:22 7,0 C 70 % 1006,2 hPa 0,0 l/m 3,3 km/h (1 Bft) W-SW 252 2 min 0,000 mm 0,0 UV-I 73 W/m 1,9 C 7,0 C 4,8 km/h (1 Bft) 100,00 %
05.03.2017 07:24 6,9 C 70 % 1006,2 hPa 0,0 l/m 4,9 km/h (1 Bft) W-SW 256 2 min 0,000 mm 0,0 UV-I 96 W/m 1,8 C 6,9 C 8,0 km/h (2 Bft) 100,00 %
05.03.2017 07:26 6,8 C 71 % 1006,3 hPa 0,0 l/m 4,9 km/h (1 Bft) SW 227 2 min 0,000 mm 0,0 UV-I 129 W/m 1,9 C 6,8 C 6,4 km/h (2 Bft) 98,11 %
05.03.2017 07:28 6,8 C 72 % 1006,3 hPa 0,0 l/m 4,2 km/h (1 Bft) SW 223 2 min 0,000 mm 0,0 UV-I 141 W/m 2,1 C 6,8 C 8,0 km/h (2 Bft) 100,00 %
05.03.2017 07:30 6,8 C 72 % 1006,3 hPa 0,0 l/m 5,8 km/h (2 Bft) SW 231 2 min 0,000 mm 0,0 UV-I 147 W/m 2,1 C 6,8 C 8,0 km/h (2 Bft) 100,00 %
05.03.2017 07:32 6,8 C 72 % 1006,4 hPa 0,0 l/m 6,1 km/h (2 Bft) SW 225 2 min 0,000 mm 0,0 UV-I 118 W/m 2,1 C 6,8 C 8,0 km/h (2 Bft) 100,00 %
05.03.2017 07:34 6,9 C 72 % 1006,4 hPa 0,0 l/m 4,4 km/h (1 Bft) SW 216 2 min 0,000 mm 0,0 UV-I 91 W/m 2,2 C 6,9 C 6,4 km/h (2 Bft) 100,00 %
05.03.2017 07:36 7,0 C 71 % 1006,4 hPa 0,0 l/m 6,5 km/h (2 Bft) W-SW 239 2 min 0,000 mm 0,0 UV-I 102 W/m 2,1 C 6,9 C 9,7 km/h (2 Bft) 100,00 %
05.03.2017 07:38 7,1 C 71 % 1006,4 hPa 0,0 l/m 5,8 km/h (2 Bft) SW 226 2 min 0,000 mm 0,0 UV-I 107 W/m 2,2 C 7,1 C 11,3 km/h (2 Bft) 100,00 %
05.03.2017 07:40 7,2 C 70 % 1006,4 hPa 0,0 l/m 5,8 km/h (2 Bft) SW 229 2 min 0,000 mm 0,0 UV-I 120 W/m 2,1 C 7,2 C 8,0 km/h (2 Bft) 100,00 %
05.03.2017 07:42 7,3 C 70 % 1006,4 hPa 0,0 l/m 5,0 km/h (1 Bft) W-SW 237 2 min 0,000 mm 0,0 UV-I 116 W/m 2,2 C 7,3 C 8,0 km/h (2 Bft) 100,00 %
05.03.2017 07:44 7,3 C 70 % 1006,4 hPa 0,0 l/m 4,6 km/h (1 Bft) W-SW 237 2 min 0,000 mm 0,0 UV-I 109 W/m 2,2 C 7,3 C 6,4 km/h (2 Bft) 100,00 %
05.03.2017 07:46 7,3 C 70 % 1006,4 hPa 0,0 l/m 4,2 km/h (1 Bft) W-SW 238 2 min 0,000 mm 0,0 UV-I 110 W/m 2,2 C 7,3 C 6,4 km/h (2 Bft) 100,00 %
05.03.2017 07:48 7,3 C 70 % 1006,5 hPa 0,0 l/m 5,2 km/h (1 Bft) SW 227 0 min 0,000 mm 0,0 UV-I 101 W/m 2,2 C 7,3 C 8,0 km/h (2 Bft) 100,00 %
05.03.2017 07:50 7,3 C 70 % 1006,5 hPa 0,0 l/m 6,6 km/h (2 Bft) W-SW 249 0 min 0,000 mm 0,0 UV-I 96 W/m 2,2 C 7,2 C 8,0 km/h (2 Bft) 100,00 %
05.03.2017 07:52 7,3 C 70 % 1006,6 hPa 0,0 l/m 6,5 km/h (2 Bft) W-SW 240 0 min 0,000 mm 0,0 UV-I 97 W/m 2,2 C 7,2 C 11,3 km/h (2 Bft) 97,56 %
05.03.2017 07:54 7,3 C 70 % 1006,5 hPa 0,0 l/m 7,0 km/h (2 Bft) W-SW 251 0 min 0,000 mm 0,0 UV-I 104 W/m 2,2 C 6,8 C 9,7 km/h (2 Bft) 98,21 %
05.03.2017 07:56 7,3 C 71 % 1006,6 hPa 0,0 l/m 7,5 km/h (2 Bft) W 265 0 min 0,000 mm 0,0 UV-I 108 W/m 2,4 C 6,4 C 9,7 km/h (2 Bft) 97,73 %
05.03.2017 07:58 7,3 C 70 % 1006,6 hPa 0,0 l/m 9,7 km/h (2 Bft) W 263 0 min 0,000 mm 0,0 UV-I 105 W/m 2,2 C 4,8 C 12,9 km/h (3 Bft) 95,74 %
05.03.2017 08:00 7,3 C 70 % 1006,6 hPa 0,0 l/m 8,0 km/h (2 Bft) W-SW 256 0 min 0,051 mm 0,0 UV-I 114 W/m 2,2 C 6,0 C 12,9 km/h (3 Bft) 97,87 %
05.03.2017 08:02 7,4 C 70 % 1006,6 hPa 0,0 l/m 8,9 km/h (2 Bft) W-NW 287 0 min 0,000 mm 0,0 UV-I 121 W/m 2,3 C 5,5 C 12,9 km/h (3 Bft) 97,22 %
05.03.2017 08:04 7,4 C 69 % 1006,6 hPa 0,0 l/m 8,1 km/h (2 Bft) W-SW 252 0 min 0,000 mm 0,0 UV-I 120 W/m 2,1 C 6,0 C 11,3 km/h (2 Bft) 98,11 %
05.03.2017 08:06 7,5 C 69 % 1006,7 hPa 0,0 l/m 8,3 km/h (2 Bft) W-SW 238 0 min 0,000 mm 0,0 UV-I 108 W/m 2,2 C 6,0 C 11,3 km/h (2 Bft) 98,00 %
05.03.2017 08:08 7,5 C 69 % 1006,7 hPa 0,0 l/m 8,4 km/h (2 Bft) W-SW 247 0 min 0,000 mm 0,0 UV-I 108 W/m 2,2 C 5,9 C 12,9 km/h (3 Bft) 97,56 %
05.03.2017 08:10 7,6 C 69 % 1006,8 hPa 0,0 l/m 8,0 km/h (2 Bft) W-SW 248 0 min 0,000 mm 0,0 UV-I 111 W/m 2,3 C 6,3 C 12,9 km/h (3 Bft) 96,23 %
05.03.2017 08:12 7,6 C 69 % 1006,8 hPa 0,0 l/m 6,7 km/h (2 Bft) W 272 0 min 0,000 mm 0,0 UV-I 112 W/m 2,3 C 7,4 C 11,3 km/h (2 Bft) 97,56 %
05.03.2017 08:14 7,6 C 69 % 1006,8 hPa 0,0 l/m 5,7 km/h (1 Bft) W-SW 252 0 min 0,000 mm 0,0 UV-I 114 W/m 2,3 C 7,6 C 9,7 km/h (2 Bft) 95,74 %
05.03.2017 08:16 7,6 C 69 % 1006,9 hPa 0,0 l/m 6,0 km/h (2 Bft) W-SW 254 0 min 0,000 mm 0,0 UV-I 118 W/m 2,3 C 7,6 C 9,7 km/h (2 Bft) 100,00 %
05.03.2017 08:18 7,7 C 69 % 1006,8 hPa 0,0 l/m 4,5 km/h (1 Bft) W 265 0 min 0,000 mm 0,0 UV-I 124 W/m 2,4 C 7,7 C 6,4 km/h (2 Bft) 97,18 %
05.03.2017 08:20 7,7 C 68 % 1006,9 hPa 0,0 l/m 4,0 km/h (1 Bft) W-SW 248 0 min 0,000 mm 0,0 UV-I 128 W/m 2,2 C 7,7 C 6,4 km/h (2 Bft) 95,74 %
05.03.2017 08:22 7,7 C 69 % 1006,9 hPa 0,0 l/m 3,2 km/h (1 Bft) W-SW 258 0 min 0,000 mm 0,0 UV-I 130 W/m 2,4 C 7,7 C 6,4 km/h (2 Bft) 97,56 %
05.03.2017 08:24 7,7 C 69 % 1007,0 hPa 0,0 l/m 4,3 km/h (1 Bft) W 267 0 min 0,000 mm 0,0 UV-I 129 W/m 2,4 C 7,7 C 6,4 km/h (2 Bft) 97,73 %
05.03.2017 08:26 7,7 C 69 % 1007,0 hPa 0,0 l/m 3,3 km/h (1 Bft) W 273 0 min 0,000 mm 0,0 UV-I 127 W/m 2,4 C 7,7 C 4,8 km/h (1 Bft) 98,00 %
05.03.2017 08:28 7,7 C 69 % 1007,0 hPa 0,0 l/m 2,2 km/h (1 Bft) W 273 0 min 0,000 mm 0,0 UV-I 132 W/m 2,4 C 7,7 C 4,8 km/h (1 Bft) 98,00 %
05.03.2017 08:30 7,7 C 69 % 1007,0 hPa 0,0 l/m 2,6 km/h (1 Bft) W 273 0 min 0,000 mm 0,0 UV-I 133 W/m 2,4 C 7,7 C 3,2 km/h (1 Bft) 96,00 %
05.03.2017 08:32 7,7 C 69 % 1007,0 hPa 0,0 l/m 2,4 km/h (1 Bft) W 273 0 min 0,000 mm 0,0 UV-I 130 W/m 2,4 C 7,7 C 3,2 km/h (1 Bft) 100,00 %
05.03.2017 08:34 7,8 C 70 % 1007,0 hPa 0,0 l/m 2,0 km/h (1 Bft) W 273 0 min 0,000 mm 0,0 UV-I 127 W/m 2,7 C 7,8 C 3,2 km/h (1 Bft) 93,62 %
05.03.2017 08:36 7,8 C 70 % 1007,1 hPa 0,0 l/m 3,1 km/h (1 Bft) W-SW 250 0 min 0,000 mm 0,0 UV-I 114 W/m 2,7 C 7,8 C 4,8 km/h (1 Bft) 97,78 %
05.03.2017 08:38 7,8 C 70 % 1007,1 hPa 0,0 l/m 4,5 km/h (1 Bft) W-SW 252 0 min 0,000 mm 0,0 UV-I 106 W/m 2,7 C 7,8 C 6,4 km/h (2 Bft) 95,92 %
05.03.2017 08:40 7,8 C 69 % 1007,1 hPa 0,0 l/m 5,8 km/h (2 Bft) W 271 0 min 0,000 mm 0,0 UV-I 101 W/m 2,5 C 7,8 C 9,7 km/h (2 Bft) 96,23 %
05.03.2017 08:42 7,8 C 69 % 1007,1 hPa 0,0 l/m 5,5 km/h (1 Bft) W-SW 241 0 min 0,000 mm 0,0 UV-I 104 W/m 2,5 C 7,8 C 6,4 km/h (2 Bft) 97,44 %
05.03.2017 08:44 7,9 C 69 % 1007,2 hPa 0,0 l/m 3,7 km/h (1 Bft) W-SW 239 0 min 0,000 mm 0,0 UV-I 106 W/m 2,6 C 7,9 C 6,4 km/h (2 Bft) 94,74 %
05.03.2017 08:46 7,9 C 69 % 1007,1 hPa 0,0 l/m 4,1 km/h (1 Bft) W-SW 240 0 min 0,000 mm 0,0 UV-I 117 W/m 2,6 C 7,9 C 6,4 km/h (2 Bft) 96,77 %
05.03.2017 08:48 7,9 C 69 % 1007,1 hPa 0,0 l/m 4,9 km/h (1 Bft) W-SW 244 0 min 0,000 mm 0,0 UV-I 141 W/m 2,6 C 7,9 C 8,0 km/h (2 Bft) 93,62 %
05.03.2017 08:50 8,0 C 68 % 1007,2 hPa 0,0 l/m 3,8 km/h (1 Bft) W-SW 243 0 min 0,000 mm 0,0 UV-I 145 W/m 2,5 C 8,0 C 6,4 km/h (2 Bft) 97,37 %
05.03.2017 08:52 8,1 C 67 % 1007,2 hPa 0,0 l/m 3,6 km/h (1 Bft) W-SW 242 0 min 0,000 mm 0,0 UV-I 138 W/m 2,3 C 8,1 C 6,4 km/h (2 Bft) 93,62 %
05.03.2017 08:54 8,1 C 67 % 1007,2 hPa 0,0 l/m 5,4 km/h (1 Bft) SW 225 0 min 0,000 mm 0,0 UV-I 128 W/m 2,3 C 8,1 C 9,7 km/h (2 Bft) 95,45 %
05.03.2017 08:56 8,2 C 67 % 1007,3 hPa 0,0 l/m 4,3 km/h (1 Bft) S 190 0 min 0,000 mm 0,0 UV-I 136 W/m 2,4 C 8,2 C 9,7 km/h (2 Bft) 94,64 %
05.03.2017 08:58 8,2 C 66 % 1007,3 hPa 0,0 l/m 7,4 km/h (2 Bft) S-SW 212 0 min 0,000 mm 0,0 UV-I 152 W/m 2,2 C 7,4 C 11,3 km/h (2 Bft) 96,00 %
05.03.2017 09:00 8,2 C 66 % 1007,3 hPa 0,0 l/m 6,4 km/h (2 Bft) S-SW 212 0 min 0,076 mm 0,0 UV-I 159 W/m 2,2 C 8,2 C 11,3 km/h (2 Bft) 94,74 %
05.03.2017 09:02 8,2 C 68 % 1007,3 hPa 0,0 l/m 5,3 km/h (1 Bft) S-SW 200 0 min 0,000 mm 0,0 UV-I 166 W/m 2,7 C 8,2 C 9,7 km/h (2 Bft) 95,74 %
05.03.2017 09:04 8,3 C 68 % 1007,3 hPa 0,0 l/m 3,0 km/h (1 Bft) SW 224 0 min 0,000 mm 0,0 UV-I 165 W/m 2,7 C 8,3 C 6,4 km/h (2 Bft) 96,00 %
05.03.2017 09:06 8,3 C 67 % 1007,3 hPa 0,0 l/m 4,4 km/h (1 Bft) S-SW 212 0 min 0,000 mm 0,0 UV-I 163 W/m 2,5 C 8,3 C 8,0 km/h (2 Bft) 94,00 %
05.03.2017 09:08 8,4 C 66 % 1007,3 hPa 0,0 l/m 6,2 km/h (2 Bft) W-SW 250 0 min 0,000 mm 0,0 UV-I 173 W/m 2,4 C 8,4 C 9,7 km/h (2 Bft) 96,23 %
05.03.2017 09:10 8,4 C 66 % 1007,3 hPa 0,0 l/m 7,0 km/h (2 Bft) SW 231 0 min 0,000 mm 0,2 UV-I 184 W/m 2,4 C 7,9 C 9,7 km/h (2 Bft) 95,12 %
05.03.2017 09:12 8,4 C 66 % 1007,2 hPa 0,0 l/m 7,7 km/h (2 Bft) SW 236 0 min 0,000 mm 0,2 UV-I 188 W/m 2,4 C 7,4 C 12,9 km/h (3 Bft) 97,37 %
05.03.2017 09:14 8,4 C 67 % 1007,2 hPa 0,0 l/m 8,4 km/h (2 Bft) W-SW 239 0 min 0,000 mm 0,0 UV-I 179 W/m 2,6 C 6,9 C 12,9 km/h (3 Bft) 98,11 %
05.03.2017 09:16 8,4 C 67 % 1007,2 hPa 0,0 l/m 9,1 km/h (2 Bft) SW 236 0 min 0,000 mm 0,0 UV-I 176 W/m 2,6 C 6,4 C 12,9 km/h (3 Bft) 96,23 %
05.03.2017 09:18 8,4 C 67 % 1007,2 hPa 0,0 l/m 7,0 km/h (2 Bft) SW 221 0 min 0,000 mm 0,0 UV-I 176 W/m 2,6 C 7,9 C 12,9 km/h (3 Bft) 97,73 %
05.03.2017 09:20 8,5 C 67 % 1007,1 hPa 0,0 l/m 7,5 km/h (2 Bft) W-SW 238 0 min 0,000 mm 0,0 UV-I 177 W/m 2,7 C 7,6 C 11,3 km/h (2 Bft) 100,00 %
05.03.2017 09:22 8,6 C 66 % 1007,2 hPa 0,0 l/m 9,4 km/h (2 Bft) W 261 0 min 0,000 mm 0,0 UV-I 172 W/m 2,6 C 6,4 C 14,5 km/h (3 Bft) 98,11 %
05.03.2017 09:24 8,6 C 66 % 1007,2 hPa 0,0 l/m 7,7 km/h (2 Bft) W-SW 254 0 min 0,000 mm 0,0 UV-I 156 W/m 2,6 C 7,6 C 11,3 km/h (2 Bft) 100,00 %
05.03.2017 09:26 8,6 C 67 % 1007,2 hPa 0,0 l/m 9,3 km/h (2 Bft) W 263 0 min 0,000 mm 0,0 UV-I 144 W/m 2,8 C 6,5 C 16,1 km/h (3 Bft) 100,00 %
05.03.2017 09:28 8,6 C 66 % 1007,2 hPa 0,0 l/m 6,4 km/h (2 Bft) SW 232 0 min 0,000 mm 0,0 UV-I 138 W/m 2,6 C 8,6 C 9,7 km/h (2 Bft) 100,00 %
05.03.2017 09:30 8,6 C 66 % 1007,2 hPa 0,0 l/m 8,5 km/h (2 Bft) W-SW 251 0 min 0,000 mm 0,0 UV-I 133 W/m 2,6 C 7,0 C 11,3 km/h (2 Bft) 100,00 %
05.03.2017 09:32 8,7 C 66 % 1007,2 hPa 0,0 l/m 8,1 km/h (2 Bft) W-SW 242 0 min 0,000 mm 0,0 UV-I 131 W/m 2,7 C 7,4 C 12,9 km/h (3 Bft) 100,00 %
05.03.2017 09:34 8,7 C 65 % 1007,2 hPa 0,0 l/m 10,2 km/h (2 Bft) W-SW 237 0 min 0,000 mm 0,0 UV-I 131 W/m 2,5 C 6,0 C 16,1 km/h (3 Bft) 100,00 %
05.03.2017 09:36 8,7 C 65 % 1007,2 hPa 0,0 l/m 8,5 km/h (2 Bft) W-SW 240 0 min 0,000 mm 0,0 UV-I 134 W/m 2,5 C 7,1 C 12,9 km/h (3 Bft) 100,00 %
05.03.2017 09:38 8,7 C 65 % 1007,2 hPa 0,0 l/m 9,1 km/h (2 Bft) W-SW 238 0 min 0,000 mm 0,0 UV-I 132 W/m 2,5 C 6,7 C 12,9 km/h (3 Bft) 100,00 %
05.03.2017 09:40 8,6 C 65 % 1007,2 hPa 0,0 l/m 5,9 km/h (2 Bft) W-SW 242 0 min 0,000 mm 0,0 UV-I 131 W/m 2,4 C 8,6 C 11,3 km/h (2 Bft) 100,00 %
05.03.2017 09:42 8,6 C 65 % 1007,3 hPa 0,0 l/m 8,9 km/h (2 Bft) W 269 0 min 0,000 mm 0,0 UV-I 127 W/m 2,4 C 6,8 C 14,5 km/h (3 Bft) 100,00 %
05.03.2017 09:44 8,6 C 65 % 1007,3 hPa 0,0 l/m 8,4 km/h (2 Bft) W-SW 238 0 min 0,000 mm 0,0 UV-I 122 W/m 2,4 C 7,1 C 12,9 km/h (3 Bft) 100,00 %
05.03.2017 09:46 8,6 C 65 % 1007,3 hPa 0,0 l/m 7,1 km/h (2 Bft) W-SW 238 0 min 0,000 mm 0,0 UV-I 113 W/m 2,4 C 8,1 C 12,9 km/h (3 Bft) 98,21 %
05.03.2017 09:48 8,6 C 65 % 1007,3 hPa 0,0 l/m 7,6 km/h (2 Bft) SW 234 0 min 0,000 mm 0,0 UV-I 105 W/m 2,4 C 7,7 C 12,9 km/h (3 Bft) 100,00 %
05.03.2017 09:50 8,6 C 65 % 1007,3 hPa 0,0 l/m 7,5 km/h (2 Bft) W-SW 251 0 min 0,000 mm 0,0 UV-I 102 W/m 2,4 C 7,8 C 11,3 km/h (2 Bft) 100,00 %
05.03.2017 09:52 8,6 C 65 % 1007,3 hPa 0,0 l/m 7,9 km/h (2 Bft) W-SW 252 0 min 0,000 mm 0,0 UV-I 99 W/m 2,4 C 7,5 C 12,9 km/h (3 Bft) 92,68 %
05.03.2017 09:54 8,6 C 65 % 1007,3 hPa 0,0 l/m 6,7 km/h (2 Bft) W-SW 254 0 min 0,000 mm 0,0 UV-I 97 W/m 2,4 C 8,4 C 11,3 km/h (2 Bft) 98,00 %
05.03.2017 09:56 8,6 C 66 % 1007,3 hPa 0,0 l/m 7,6 km/h (2 Bft) W-SW 247 0 min 0,000 mm 0,0 UV-I 98 W/m 2,6 C 7,7 C 12,9 km/h (3 Bft) 100,00 %
05.03.2017 09:58 8,6 C 66 % 1007,3 hPa 0,0 l/m 6,1 km/h (2 Bft) W-NW 288 0 min 0,000 mm 0,0 UV-I 106 W/m 2,6 C 8,6 C 11,3 km/h (2 Bft) 100,00 %
05.03.2017 10:00 8,6 C 66 % 1007,3 hPa 0,0 l/m 7,1 km/h (2 Bft) W-SW 250 0 min 0,101 mm 0,0 UV-I 105 W/m 2,6 C 8,1 C 12,9 km/h (3 Bft) 100,00 %
05.03.2017 10:02 8,6 C 66 % 1007,2 hPa 0,0 l/m 8,8 km/h (2 Bft) W-SW 251 0 min 0,000 mm 0,0 UV-I 97 W/m 2,6 C 6,8 C 12,9 km/h (3 Bft) 100,00 %
05.03.2017 10:04 8,6 C 66 % 1007,2 hPa 0,0 l/m 3,5 km/h (1 Bft) W 267 0 min 0,000 mm 0,0 UV-I 100 W/m 2,6 C 8,6 C 4,8 km/h (1 Bft) 98,11 %
05.03.2017 10:06 8,6 C 67 % 1007,3 hPa 0,0 l/m 5,4 km/h (1 Bft) W-SW 243 0 min 0,000 mm 0,1 UV-I 125 W/m 2,8 C 8,6 C 8,0 km/h (2 Bft) 100,00 %
05.03.2017 10:08 8,6 C 66 % 1007,3 hPa 0,0 l/m 6,2 km/h (2 Bft) W-SW 250 0 min 0,000 mm 0,5 UV-I 143 W/m 2,6 C 8,6 C 9,7 km/h (2 Bft) 100,00 %
05.03.2017 10:10 8,7 C 67 % 1007,3 hPa 0,0 l/m 7,2 km/h (2 Bft) W-SW 250 0 min 0,000 mm 0,5 UV-I 155 W/m 2,9 C 8,1 C 11,3 km/h (2 Bft) 100,00 %
05.03.2017 10:12 8,7 C 66 % 1007,3 hPa 0,0 l/m 4,7 km/h (1 Bft) SW 234 0 min 0,000 mm 0,5 UV-I 149 W/m 2,7 C 8,7 C 8,0 km/h (2 Bft) 100,00 %
05.03.2017 10:14 8,7 C 66 % 1007,3 hPa 0,0 l/m 6,6 km/h (2 Bft) W-SW 244 0 min 0,000 mm 0,6 UV-I 153 W/m 2,7 C 8,6 C 11,3 km/h (2 Bft) 97,14 %
05.03.2017 10:16 8,8 C 66 % 1007,3 hPa 0,0 l/m 5,1 km/h (1 Bft) W-NW 286 0 min 0,000 mm 0,6 UV-I 168 W/m 2,8 C 8,8 C 9,7 km/h (2 Bft) 100,00 %
05.03.2017 10:18 8,8 C 67 % 1007,3 hPa 0,0 l/m 5,2 km/h (1 Bft) W-SW 250 0 min 0,000 mm 0,6 UV-I 166 W/m 3,0 C 8,8 C 9,7 km/h (2 Bft) 100,00 %
05.03.2017 10:20 8,9 C 66 % 1007,3 hPa 0,0 l/m 5,6 km/h (1 Bft) W-SW 238 0 min 0,000 mm 0,6 UV-I 171 W/m 2,9 C 8,9 C 8,0 km/h (2 Bft) 100,00 %
05.03.2017 10:22 8,9 C 65 % 1007,3 hPa 0,0 l/m 8,8 km/h (2 Bft) W 269 0 min 0,000 mm 0,6 UV-I 169 W/m 2,7 C 7,1 C 16,1 km/h (3 Bft) 100,00 %
05.03.2017 10:24 8,9 C 65 % 1007,3 hPa 0,0 l/m 8,0 km/h (2 Bft) W-SW 247 0 min 0,000 mm 0,6 UV-I 149 W/m 2,7 C 7,7 C 12,9 km/h (3 Bft) 100,00 %
05.03.2017 10:26 8,9 C 65 % 1007,4 hPa 0,0 l/m 6,9 km/h (2 Bft) SW 221 0 min 0,000 mm 0,5 UV-I 142 W/m 2,7 C 8,5 C 9,7 km/h (2 Bft) 100,00 %
05.03.2017 10:28 8,9 C 65 % 1007,3 hPa 0,0 l/m 9,9 km/h (2 Bft) SW 234 0 min 0,000 mm 0,5 UV-I 141 W/m 2,7 C 6,4 C 14,5 km/h (3 Bft) 97,56 %
05.03.2017 10:30 8,9 C 64 % 1007,3 hPa 0,0 l/m 9,7 km/h (2 Bft) SW 225 0 min 0,000 mm 0,5 UV-I 142 W/m 2,5 C 6,6 C 16,1 km/h (3 Bft) 98,25 %
05.03.2017 10:34 8,9 C 64 % 1007,3 hPa 0,0 l/m 7,9 km/h (2 Bft) W-NW 292 0 min 0,000 mm 0,5 UV-I 143 W/m 2,5 C 7,8 C 14,5 km/h (3 Bft) 100,00 %
05.03.2017 10:36 8,9 C 62 % 1007,3 hPa 0,0 l/m 7,7 km/h (2 Bft) W-NW 294 0 min 0,000 mm 0,5 UV-I 144 W/m 2,0 C 7,9 C 16,1 km/h (3 Bft) 100,00 %
05.03.2017 10:38 8,9 C 63 % 1007,3 hPa 0,0 l/m 6,8 km/h (2 Bft) W-SW 241 0 min 0,000 mm 0,5 UV-I 147 W/m 2,2 C 8,6 C 12,9 km/h (3 Bft) 100,00 %
05.03.2017 10:40 8,9 C 64 % 1007,3 hPa 0,0 l/m 5,8 km/h (2 Bft) W-SW 252 0 min 0,000 mm 0,5 UV-I 143 W/m 2,5 C 8,9 C 11,3 km/h (2 Bft) 97,87 %
05.03.2017 10:42 8,9 C 64 % 1007,3 hPa 0,0 l/m 8,1 km/h (2 Bft) SW 231 0 min 0,000 mm 0,6 UV-I 144 W/m 2,5 C 7,6 C 11,3 km/h (2 Bft) 97,44 %
05.03.2017 10:44 8,9 C 64 % 1007,2 hPa 0,0 l/m 7,9 km/h (2 Bft) W-SW 250 0 min 0,000 mm 0,6 UV-I 163 W/m 2,5 C 7,8 C 12,9 km/h (3 Bft) 98,00 %
05.03.2017 10:46 8,9 C 64 % 1007,2 hPa 0,0 l/m 8,1 km/h (2 Bft) SW 223 0 min 0,000 mm 0,7 UV-I 189 W/m 2,5 C 7,6 C 14,5 km/h (3 Bft) 96,15 %
05.03.2017 10:49 8,9 C 64 % 1007,2 hPa 0,0 l/m 11,3 km/h (2 Bft) W-SW 244 0 min 0,000 mm 0,7 UV-I 185 W/m 2,5 C 5,6 C 17,7 km/h (3 Bft) 96,92 %
05.03.2017 10:50 8,9 C 64 % 1007,2 hPa 0,0 l/m 10,5 km/h (2 Bft) SW 234 0 min 0,000 mm 0,6 UV-I 162 W/m 2,5 C 6,1 C 16,1 km/h (3 Bft) 100,00 %
05.03.2017 10:52 8,9 C 65 % 1007,2 hPa 0,0 l/m 7,0 km/h (2 Bft) W-SW 250 0 min 0,000 mm 0,6 UV-I 157 W/m 2,7 C 8,4 C 11,3 km/h (2 Bft) 96,23 %
05.03.2017 10:54 8,9 C 65 % 1007,1 hPa 0,0 l/m 9,2 km/h (2 Bft) W 264 0 min 0,000 mm 0,6 UV-I 168 W/m 2,7 C 6,9 C 12,9 km/h (3 Bft) 97,73 %
05.03.2017 10:56 8,9 C 65 % 1007,2 hPa 0,0 l/m 8,1 km/h (2 Bft) W-SW 244 0 min 0,000 mm 0,6 UV-I 162 W/m 2,7 C 7,6 C 14,5 km/h (3 Bft) 98,00 %
05.03.2017 10:58 8,8 C 65 % 1007,1 hPa 0,0 l/m 10,7 km/h (2 Bft) SW 236 0 min 0,000 mm 0,6 UV-I 156 W/m 2,6 C 5,9 C 17,7 km/h (3 Bft) 97,56 %
05.03.2017 11:00 8,8 C 65 % 1007,2 hPa 0,0 l/m 11,3 km/h (2 Bft) SW 221 0 min 0,102 mm 0,6 UV-I 155 W/m 2,6 C 5,5 C 16,1 km/h (3 Bft) 94,64 %
05.03.2017 11:03 8,7 C 66 % 1007,2 hPa 0,0 l/m 8,3 km/h (2 Bft) S-SW 206 0 min 0,000 mm 0,6 UV-I 154 W/m 2,7 C 7,3 C 16,1 km/h (3 Bft) 94,29 %
05.03.2017 11:04 8,7 C 67 % 1007,2 hPa 0,0 l/m 7,8 km/h (2 Bft) S-SW 211 0 min 0,000 mm 0,6 UV-I 146 W/m 2,9 C 7,6 C 12,9 km/h (3 Bft) 100,00 %
05.03.2017 11:06 8,7 C 68 % 1007,2 hPa 0,0 l/m 9,9 km/h (2 Bft) S-SW 197 0 min 0,000 mm 0,6 UV-I 146 W/m 3,1 C 6,2 C 20,9 km/h (4 Bft) 96,43 %
05.03.2017 11:08 8,6 C 69 % 1007,2 hPa 0,0 l/m 12,6 km/h (3 Bft) W 259 0 min 0,000 mm 0,6 UV-I 160 W/m 3,2 C 4,6 C 20,9 km/h (4 Bft) 96,00 %
05.03.2017 11:10 8,5 C 69 % 1007,1 hPa 0,0 l/m 13,1 km/h (3 Bft) SW 222 0 min 0,000 mm 0,7 UV-I 177 W/m 3,1 C 4,2 C 20,9 km/h (4 Bft) 97,56 %
05.03.2017 11:12 8,4 C 69 % 1007,1 hPa 0,0 l/m 12,8 km/h (3 Bft) W 261 0 min 0,000 mm 0,8 UV-I 203 W/m 3,0 C 4,3 C 19,3 km/h (3 Bft) 98,11 %
05.03.2017 11:14 8,4 C 69 % 1007,1 hPa 0,0 l/m 10,1 km/h (2 Bft) SW 216 0 min 0,000 mm 0,9 UV-I 214 W/m 3,0 C 5,8 C 16,1 km/h (3 Bft) 97,56 %
05.03.2017 11:16 8,4 C 69 % 1007,1 hPa 0,0 l/m 8,4 km/h (2 Bft) S-SW 196 0 min 0,000 mm 0,9 UV-I 212 W/m 3,0 C 6,9 C 14,5 km/h (3 Bft) 100,00 %
05.03.2017 11:18 8,5 C 69 % 1007,1 hPa 0,0 l/m 12,6 km/h (3 Bft) SW 219 0 min 0,000 mm 0,9 UV-I 210 W/m 3,1 C 4,5 C 19,3 km/h (3 Bft) 100,00 %
05.03.2017 11:20 8,5 C 69 % 1007,0 hPa 0,0 l/m 15,6 km/h (3 Bft) SW 233 0 min 0,000 mm 1,0 UV-I 232 W/m 3,1 C 3,1 C 20,9 km/h (4 Bft) 100,00 %
05.03.2017 11:22 8,4 C 69 % 1007,1 hPa 0,0 l/m 13,8 km/h (3 Bft) SW 222 0 min 0,000 mm 1,1 UV-I 276 W/m 3,0 C 3,8 C 20,9 km/h (4 Bft) 100,00 %
05.03.2017 11:24 8,4 C 69 % 1007,1 hPa 0,0 l/m 11,5 km/h (2 Bft) W-SW 242 0 min 0,000 mm 1,1 UV-I 300 W/m 3,0 C 4,9 C 19,3 km/h (3 Bft) 100,00 %
05.03.2017 11:26 8,6 C 69 % 1007,1 hPa 0,0 l/m 13,5 km/h (3 Bft) W-SW 250 2 min 0,000 mm 1,3 UV-I 399 W/m 3,2 C 4,1 C 24,1 km/h (4 Bft) 97,87 %
05.03.2017 11:28 8,6 C 69 % 1007,0 hPa 0,0 l/m 16,1 km/h (3 Bft) W-SW 242 2 min 0,000 mm 1,2 UV-I 340 W/m 3,2 C 3,0 C 20,9 km/h (4 Bft) 100,00 %
05.03.2017 11:30 8,7 C 68 % 1007,0 hPa 0,0 l/m 12,4 km/h (3 Bft) S 189 0 min 0,000 mm 1,1 UV-I 312 W/m 3,1 C 4,8 C 22,5 km/h (4 Bft) 100,00 %
05.03.2017 11:32 8,7 C 68 % 1007,0 hPa 0,0 l/m 10,5 km/h (2 Bft) SW 217 2 min 0,000 mm 1,1 UV-I 367 W/m 3,1 C 5,9 C 20,9 km/h (4 Bft) 100,00 %
05.03.2017 11:34 8,8 C 67 % 1007,0 hPa 0,0 l/m 13,2 km/h (3 Bft) S-SW 212 2 min 0,000 mm 1,1 UV-I 356 W/m 3,0 C 4,5 C 22,5 km/h (4 Bft) 100,00 %
05.03.2017 11:36 8,7 C 67 % 1007,0 hPa 0,0 l/m 13,8 km/h (3 Bft) SW 234 0 min 0,000 mm 1,0 UV-I 287 W/m 2,9 C 4,1 C 19,3 km/h (3 Bft) 100,00 %
05.03.2017 11:38 8,8 C 69 % 1007,0 hPa 0,0 l/m 11,0 km/h (2 Bft) W-SW 239 0 min 0,000 mm 0,9 UV-I 247 W/m 3,4 C 5,7 C 16,1 km/h (3 Bft) 100,00 %
05.03.2017 11:40 8,8 C 69 % 1007,0 hPa 0,0 l/m 11,0 km/h (2 Bft) W-SW 242 0 min 0,000 mm 0,9 UV-I 229 W/m 3,4 C 5,7 C 19,3 km/h (3 Bft) 100,00 %
05.03.2017 11:42 8,7 C 69 % 1007,0 hPa 0,0 l/m 11,4 km/h (2 Bft) SW 225 0 min 0,000 mm 0,9 UV-I 234 W/m 3,3 C 5,3 C 17,7 km/h (3 Bft) 100,00 %
05.03.2017 11:44 8,7 C 70 % 1006,9 hPa 0,0 l/m 13,3 km/h (3 Bft) S-SW 213 0 min 0,000 mm 0,9 UV-I 232 W/m 3,5 C 4,4 C 19,3 km/h (3 Bft) 100,00 %
05.03.2017 11:46 8,6 C 70 % 1006,9 hPa 0,0 l/m 12,2 km/h (2 Bft) S 189 0 min 0,000 mm 0,8 UV-I 220 W/m 3,4 C 4,8 C 17,7 km/h (3 Bft) 98,11 %
05.03.2017 11:48 8,6 C 70 % 1006,9 hPa 0,0 l/m 11,2 km/h (2 Bft) W-SW 247 0 min 0,000 mm 0,8 UV-I 190 W/m 3,4 C 5,3 C 19,3 km/h (3 Bft) 100,00 %
05.03.2017 11:50 8,6 C 71 % 1007,0 hPa 0,0 l/m 12,2 km/h (2 Bft) SW 226 0 min 0,000 mm 0,7 UV-I 169 W/m 3,6 C 4,8 C 19,3 km/h (3 Bft) 100,00 %
05.03.2017 11:52 8,5 C 70 % 1007,0 hPa 0,0 l/m 12,3 km/h (3 Bft) W-SW 238 0 min 0,000 mm 0,7 UV-I 168 W/m 3,3 C 4,6 C 19,3 km/h (3 Bft) 100,00 %
05.03.2017 11:54 8,5 C 71 % 1006,9 hPa 0,0 l/m 12,1 km/h (2 Bft) SW 221 0 min 0,000 mm 0,7 UV-I 187 W/m 3,5 C 4,7 C 17,7 km/h (3 Bft) 100,00 %
05.03.2017 11:56 8,5 C 70 % 1006,9 hPa 0,0 l/m 11,4 km/h (2 Bft) W 261 0 min 0,000 mm 0,8 UV-I 198 W/m 3,3 C 5,1 C 20,9 km/h (4 Bft) 100,00 %
05.03.2017 11:58 8,4 C 71 % 1006,9 hPa 0,0 l/m 12,1 km/h (2 Bft) S-SW 206 0 min 0,000 mm 0,8 UV-I 200 W/m 3,5 C 4,6 C 17,7 km/h (3 Bft) 100,00 %
05.03.2017 12:00 8,4 C 71 % 1006,8 hPa 0,0 l/m 12,6 km/h (3 Bft) SW 224 0 min 0,152 mm 0,8 UV-I 196 W/m 3,5 C 4,4 C 22,5 km/h (4 Bft) 100,00 %
05.03.2017 12:03 8,4 C 72 % 1006,9 hPa 0,0 l/m 12,4 km/h (3 Bft) S-SW 197 0 min 0,000 mm 0,9 UV-I 206 W/m 3,7 C 4,5 C 22,5 km/h (4 Bft) 100,00 %
05.03.2017 12:04 8,4 C 71 % 1006,9 hPa 0,0 l/m 13,6 km/h (3 Bft) SW 229 0 min 0,000 mm 0,8 UV-I 177 W/m 3,5 C 3,9 C 17,7 km/h (3 Bft) 100,00 %
05.03.2017 12:06 8,4 C 71 % 1006,8 hPa 0,0 l/m 13,1 km/h (3 Bft) W-SW 241 0 min 0,000 mm 0,7 UV-I 167 W/m 3,5 C 4,1 C 19,3 km/h (3 Bft) 100,00 %
05.03.2017 12:08 8,4 C 71 % 1006,8 hPa 0,0 l/m 16,4 km/h (3 Bft) W-SW 257 0 min 0,000 mm 0,7 UV-I 155 W/m 3,5 C 2,6 C 22,5 km/h (4 Bft) 100,00 %
05.03.2017 12:10 8,3 C 72 % 1006,8 hPa 0,0 l/m 15,3 km/h (3 Bft) SW 223 0 min 0,000 mm 0,6 UV-I 146 W/m 3,6 C 2,9 C 20,9 km/h (4 Bft) 95,74 %
05.03.2017 12:12 8,2 C 72 % 1006,9 hPa 0,0 l/m 17,6 km/h (3 Bft) SW 228 0 min 0,000 mm 0,6 UV-I 148 W/m 3,5 C 1,9 C 27,4 km/h (4 Bft) 100,00 %
05.03.2017 12:14 8,2 C 72 % 1006,9 hPa 0,0 l/m 11,8 km/h (2 Bft) SW 214 0 min 0,000 mm 0,6 UV-I 136 W/m 3,5 C 4,6 C 19,3 km/h (3 Bft) 98,75 %
05.03.2017 12:16 8,1 C 72 % 1006,9 hPa 0,0 l/m 12,8 km/h (3 Bft) S 182 0 min 0,000 mm 0,5 UV-I 123 W/m 3,4 C 3,9 C 19,3 km/h (3 Bft) 100,00 %
05.03.2017 12:18 8,0 C 73 % 1006,9 hPa 0,0 l/m 13,1 km/h (3 Bft) S-SW 203 0 min 0,000 mm 0,5 UV-I 111 W/m 3,5 C 3,6 C 19,3 km/h (3 Bft) 100,00 %
05.03.2017 12:20 7,9 C 73 % 1006,9 hPa 0,0 l/m 12,2 km/h (2 Bft) SW 226 0 min 0,000 mm 0,5 UV-I 112 W/m 3,4 C 4,0 C 20,9 km/h (4 Bft) 98,11 %
05.03.2017 12:22 7,9 C 73 % 1006,9 hPa 0,0 l/m 18,6 km/h (3 Bft) SW 222 0 min 0,000 mm 0,5 UV-I 111 W/m 3,4 C 1,1 C 24,1 km/h (4 Bft) 100,00 %
05.03.2017 12:24 7,8 C 74 % 1006,9 hPa 0,0 l/m 13,1 km/h (3 Bft) SW 228 0 min 0,000 mm 0,5 UV-I 111 W/m 3,5 C 3,4 C 19,3 km/h (3 Bft) 97,87 %
05.03.2017 12:26 7,8 C 74 % 1006,8 hPa 0,0 l/m 13,2 km/h (3 Bft) SW 231 0 min 0,000 mm 0,2 UV-I 111 W/m 3,5 C 3,3 C 20,9 km/h (4 Bft) 97,37 %
05.03.2017 12:28 7,7 C 74 % 1006,8 hPa 0,0 l/m 12,2 km/h (2 Bft) S-SW 213 0 min 0,000 mm 0,0 UV-I 94 W/m 3,4 C 3,8 C 20,9 km/h (4 Bft) 97,87 %
05.03.2017 12:30 7,7 C 75 % 1006,9 hPa 0,0 l/m 11,4 km/h (2 Bft) S-SW 199 0 min 0,000 mm 0,0 UV-I 100 W/m 3,6 C 4,2 C 19,3 km/h (3 Bft) 97,56 %
05.03.2017 12:32 7,7 C 75 % 1006,8 hPa 0,0 l/m 8,6 km/h (2 Bft) S-SW 208 0 min 0,000 mm 0,2 UV-I 106 W/m 3,6 C 6,0 C 14,5 km/h (3 Bft) 94,64 %
05.03.2017 12:34 7,7 C 75 % 1006,8 hPa 0,0 l/m 15,2 km/h (3 Bft) SW 232 0 min 0,000 mm 0,1 UV-I 107 W/m 3,6 C 2,3 C 24,1 km/h (4 Bft) 94,64 %
05.03.2017 12:36 7,6 C 75 % 1006,8 hPa 0,0 l/m 14,6 km/h (3 Bft) SW 214 0 min 0,000 mm 0,3 UV-I 109 W/m 3,5 C 2,4 C 25,7 km/h (4 Bft) 95,12 %
05.03.2017 12:38 7,6 C 75 % 1006,8 hPa 0,0 l/m 12,3 km/h (3 Bft) W-SW 242 0 min 0,000 mm 0,3 UV-I 111 W/m 3,5 C 3,6 C 22,5 km/h (4 Bft) 93,62 %
05.03.2017 12:40 7,5 C 75 % 1006,7 hPa 0,0 l/m 18,1 km/h (3 Bft) SW 229 0 min 0,000 mm 0,1 UV-I 106 W/m 3,4 C 0,8 C 25,7 km/h (4 Bft) 94,87 %
05.03.2017 12:42 7,4 C 75 % 1006,8 hPa 0,0 l/m 13,5 km/h (3 Bft) SW 232 0 min 0,000 mm 0,0 UV-I 101 W/m 3,3 C 2,7 C 20,9 km/h (4 Bft) 96,00 %
05.03.2017 12:44 7,4 C 76 % 1006,7 hPa 0,0 l/m 16,4 km/h (3 Bft) S-SW 205 0 min 0,000 mm 0,5 UV-I 117 W/m 3,5 C 1,4 C 22,5 km/h (4 Bft) 96,55 %
05.03.2017 12:46 7,4 C 76 % 1006,7 hPa 0,0 l/m 17,0 km/h (3 Bft) SW 215 0 min 0,000 mm 0,5 UV-I 120 W/m 3,5 C 1,1 C 24,1 km/h (4 Bft) 95,77 %
05.03.2017 12:48 7,4 C 75 % 1006,7 hPa 0,0 l/m 14,4 km/h (3 Bft) W-SW 241 0 min 0,000 mm 0,5 UV-I 123 W/m 3,3 C 2,3 C 25,7 km/h (4 Bft) 95,45 %
05.03.2017 12:50 7,3 C 75 % 1006,6 hPa 0,0 l/m 14,3 km/h (3 Bft) W-SW 257 0 min 0,000 mm 0,5 UV-I 113 W/m 3,2 C 2,2 C 24,1 km/h (4 Bft) 92,00 %
05.03.2017 12:52 7,3 C 75 % 1006,6 hPa 0,0 l/m 17,9 km/h (3 Bft) W-SW 239 0 min 0,000 mm 0,1 UV-I 98 W/m 3,2 C 0,6 C 27,4 km/h (4 Bft) 94,00 %
05.03.2017 12:54 7,3 C 75 % 1006,5 hPa 0,0 l/m 17,1 km/h (3 Bft) W-SW 254 0 min 0,000 mm 0,5 UV-I 109 W/m 3,2 C 0,9 C 25,7 km/h (4 Bft) 94,74 %
05.03.2017 12:56 7,3 C 75 % 1006,5 hPa 0,0 l/m 18,9 km/h (3 Bft) S-SW 213 0 min 0,000 mm 0,5 UV-I 124 W/m 3,2 C 0,2 C 30,6 km/h (5 Bft) 96,23 %
05.03.2017 12:59 7,3 C 76 % 1006,3 hPa 0,0 l/m 17,6 km/h (3 Bft) W-SW 241 0 min 0,000 mm 0,5 UV-I 130 W/m 3,4 C 0,7 C 27,4 km/h (4 Bft) 97,14 %
05.03.2017 13:00 7,3 C 76 % 1006,3 hPa 0,0 l/m 11,5 km/h (2 Bft) W 271 0 min 0,000 mm 0,5 UV-I 121 W/m 3,4 C 3,7 C 16,1 km/h (3 Bft) 91,67 %
05.03.2017 13:02 7,3 C 76 % 1006,3 hPa 0,0 l/m 12,0 km/h (2 Bft) SW 219 0 min 0,102 mm 0,5 UV-I 128 W/m 3,4 C 3,4 C 17,7 km/h (3 Bft) 96,77 %
05.03.2017 13:04 7,3 C 76 % 1006,2 hPa 0,0 l/m 11,9 km/h (2 Bft) W-SW 252 0 min 0,000 mm 0,6 UV-I 139 W/m 3,4 C 3,5 C 19,3 km/h (3 Bft) 97,56 %
05.03.2017 13:06 7,3 C 76 % 1006,2 hPa 0,0 l/m 12,2 km/h (2 Bft) SW 221 0 min 0,000 mm 0,6 UV-I 153 W/m 3,4 C 3,3 C 16,1 km/h (3 Bft) 97,14 %
05.03.2017 13:08 7,3 C 76 % 1006,2 hPa 0,0 l/m 18,3 km/h (3 Bft) SW 236 0 min 0,000 mm 0,6 UV-I 156 W/m 3,4 C 0,4 C 29,0 km/h (5 Bft) 98,28 %
05.03.2017 13:10 7,3 C 76 % 1006,2 hPa 0,0 l/m 14,6 km/h (3 Bft) SW 221 0 min 0,000 mm 0,6 UV-I 150 W/m 3,4 C 2,1 C 20,9 km/h (4 Bft) 94,74 %
05.03.2017 13:12 7,3 C 76 % 1006,2 hPa 0,0 l/m 11,2 km/h (2 Bft) SW 223 0 min 0,000 mm 0,6 UV-I 151 W/m 3,4 C 3,9 C 20,9 km/h (4 Bft) 96,43 %
05.03.2017 13:14 7,3 C 76 % 1006,2 hPa 0,0 l/m 13,3 km/h (3 Bft) W 260 0 min 0,000 mm 0,6 UV-I 140 W/m 3,4 C 2,7 C 22,5 km/h (4 Bft) 96,23 %
05.03.2017 13:16 7,3 C 76 % 1006,2 hPa 0,0 l/m 11,2 km/h (2 Bft) SW 229 0 min 0,000 mm 0,5 UV-I 132 W/m 3,4 C 3,9 C 24,1 km/h (4 Bft) 97,73 %
05.03.2017 13:19 7,3 C 77 % 1006,1 hPa 0,0 l/m 9,8 km/h (2 Bft) W 263 0 min 0,000 mm 0,5 UV-I 127 W/m 3,5 C 4,7 C 16,1 km/h (3 Bft) 97,30 %
05.03.2017 13:20 7,3 C 77 % 1006,1 hPa 0,0 l/m 8,3 km/h (2 Bft) W 265 0 min 0,000 mm 0,5 UV-I 127 W/m 3,5 C 5,8 C 16,1 km/h (3 Bft) 93,33 %
05.03.2017 13:22 7,3 C 77 % 1006,1 hPa 0,0 l/m 8,4 km/h (2 Bft) W 262 0 min 0,000 mm 0,5 UV-I 128 W/m 3,5 C 5,7 C 14,5 km/h (3 Bft) 95,45 %
05.03.2017 13:24 7,3 C 78 % 1006,1 hPa 0,0 l/m 8,9 km/h (2 Bft) W 263 0 min 0,000 mm 0,5 UV-I 128 W/m 3,7 C 5,4 C 14,5 km/h (3 Bft) 98,00 %
05.03.2017 13:26 7,3 C 77 % 1006,1 hPa 0,0 l/m 12,2 km/h (2 Bft) W-SW 244 0 min 0,000 mm 0,5 UV-I 133 W/m 3,5 C 3,3 C 20,9 km/h (4 Bft) 96,00 %
05.03.2017 13:28 7,3 C 77 % 1006,1 hPa 0,0 l/m 14,1 km/h (3 Bft) W-SW 238 0 min 0,000 mm 0,5 UV-I 127 W/m 3,5 C 2,3 C 20,9 km/h (4 Bft) 97,56 %
05.03.2017 13:30 7,3 C 77 % 1006,1 hPa 0,0 l/m 10,4 km/h (2 Bft) W-SW 250 0 min 0,000 mm 0,2 UV-I 107 W/m 3,5 C 4,4 C 14,5 km/h (3 Bft) 97,73 %
05.03.2017 13:32 7,3 C 77 % 1006,1 hPa 0,0 l/m 10,8 km/h (2 Bft) S-SW 194 0 min 0,000 mm 0,0 UV-I 105 W/m 3,5 C 4,1 C 20,9 km/h (4 Bft) 98,31 %
05.03.2017 13:34 7,2 C 77 % 1006,1 hPa 0,0 l/m 14,6 km/h (3 Bft) SW 232 0 min 0,000 mm 0,4 UV-I 116 W/m 3,4 C 1,9 C 22,5 km/h (4 Bft) 97,56 %
05.03.2017 13:36 7,2 C 77 % 1006,2 hPa 0,0 l/m 16,8 km/h (3 Bft) S-SW 207 0 min 0,000 mm 0,5 UV-I 128 W/m 3,4 C 0,9 C 22,5 km/h (4 Bft) 97,73 %
05.03.2017 13:38 7,1 C 77 % 1006,1 hPa 0,0 l/m 16,4 km/h (3 Bft) W-SW 256 0 min 0,000 mm 0,5 UV-I 127 W/m 3,3 C 1,0 C 22,5 km/h (4 Bft) 100,00 %
05.03.2017 13:40 7,1 C 77 % 1006,0 hPa 0,0 l/m 14,6 km/h (3 Bft) SW 232 0 min 0,000 mm 0,4 UV-I 122 W/m 3,3 C 1,8 C 24,1 km/h (4 Bft) 98,00 %
05.03.2017 13:42 7,1 C 77 % 1006,0 hPa 0,0 l/m 16,8 km/h (3 Bft) SW 220 0 min 0,000 mm 0,0 UV-I 118 W/m 3,3 C 0,8 C 22,5 km/h (4 Bft) 100,00 %
05.03.2017 13:44 7,1 C 77 % 1006,0 hPa 0,0 l/m 17,6 km/h (3 Bft) W-SW 257 0 min 0,000 mm 0,0 UV-I 115 W/m 3,3 C 0,5 C 24,1 km/h (4 Bft) 100,00 %
05.03.2017 13:46 7,0 C 77 % 1006,0 hPa 0,0 l/m 15,0 km/h (3 Bft) W 271 0 min 0,000 mm 0,0 UV-I 114 W/m 3,2 C 1,5 C 22,5 km/h (4 Bft) 100,00 %
05.03.2017 13:48 6,9 C 78 % 1006,0 hPa 0,0 l/m 14,2 km/h (3 Bft) SW 229 0 min 0,000 mm 0,0 UV-I 114 W/m 3,3 C 1,8 C 20,9 km/h (4 Bft) 97,87 %
05.03.2017 13:50 7,0 C 78 % 1005,9 hPa 0,0 l/m 14,1 km/h (3 Bft) S-SW 213 0 min 0,000 mm 0,0 UV-I 112 W/m 3,4 C 1,9 C 22,5 km/h (4 Bft) 100,00 %
05.03.2017 13:52 7,0 C 78 % 1005,9 hPa 0,0 l/m 19,0 km/h (3 Bft) SW 219 0 min 0,000 mm 0,0 UV-I 105 W/m 3,4 C -0,2 C 24,1 km/h (4 Bft) 97,87 %
05.03.2017 13:54 6,9 C 78 % 1005,9 hPa 0,0 l/m 15,6 km/h (3 Bft) SW 223 0 min 0,000 mm 0,0 UV-I 104 W/m 3,3 C 1,1 C 25,7 km/h (4 Bft) 100,00 %
05.03.2017 13:56 6,9 C 78 % 1005,9 hPa 0,0 l/m 14,1 km/h (3 Bft) SW 230 0 min 0,000 mm 0,0 UV-I 103 W/m 3,3 C 1,8 C 20,9 km/h (4 Bft) 100,00 %
05.03.2017 13:59 6,9 C 78 % 1006,0 hPa 0,0 l/m 17,0 km/h (3 Bft) W 263 0 min 0,000 mm 0,0 UV-I 100 W/m 3,3 C 0,5 C 22,5 km/h (4 Bft) 100,00 %
05.03.2017 14:00 6,9 C 77 % 1006,0 hPa 0,0 l/m 11,7 km/h (2 Bft) SW 221 0 min 0,000 mm 0,0 UV-I 99 W/m 3,2 C 3,1 C 19,3 km/h (3 Bft) 100,00 %
05.03.2017 14:02 6,9 C 78 % 1005,9 hPa 0,0 l/m 11,8 km/h (2 Bft) W 273 0 min 0,076 mm 0,0 UV-I 100 W/m 3,3 C 3,1 C 19,3 km/h (3 Bft) 100,00 %
05.03.2017 14:04 6,9 C 78 % 1006,0 hPa 0,0 l/m 16,1 km/h (3 Bft) SW 221 0 min 0,000 mm 0,0 UV-I 102 W/m 3,3 C 0,9 C 22,5 km/h (4 Bft) 100,00 %
05.03.2017 14:06 6,9 C 78 % 1006,0 hPa 0,0 l/m 16,9 km/h (3 Bft) SW 228 0 min 0,000 mm 0,0 UV-I 97 W/m 3,3 C 0,5 C 25,7 km/h (4 Bft) 100,00 %
05.03.2017 14:08 6,8 C 79 % 1006,0 hPa 0,0 l/m 14,4 km/h (3 Bft) W-SW 238 0 min 0,000 mm 0,0 UV-I 91 W/m 3,4 C 1,5 C 24,1 km/h (4 Bft) 100,00 %
05.03.2017 14:10 6,8 C 79 % 1006,0 hPa 0,0 l/m 15,3 km/h (3 Bft) W-SW 239 0 min 0,000 mm 0,0 UV-I 86 W/m 3,4 C 1,1 C 22,5 km/h (4 Bft) 98,31 %
05.03.2017 14:12 6,8 C 79 % 1006,1 hPa 0,0 l/m 13,7 km/h (3 Bft) S 191 0 min 0,000 mm 0,0 UV-I 84 W/m 3,4 C 1,9 C 20,9 km/h (4 Bft) 100,00 %
05.03.2017 14:14 6,8 C 79 % 1006,0 hPa 0,0 l/m 12,7 km/h (3 Bft) S-SW 209 0 min 0,000 mm 0,0 UV-I 82 W/m 3,4 C 2,4 C 19,3 km/h (3 Bft) 100,00 %
05.03.2017 14:16 6,7 C 79 % 1006,0 hPa 0,0 l/m 13,8 km/h (3 Bft) W-SW 241 0 min 0,000 mm 0,0 UV-I 77 W/m 3,3 C 1,7 C 20,9 km/h (4 Bft) 100,00 %
05.03.2017 14:19 6,7 C 79 % 1006,0 hPa 0,0 l/m 13,0 km/h (3 Bft) SW 218 0 min 0,000 mm 0,0 UV-I 72 W/m 3,3 C 2,2 C 20,9 km/h (4 Bft) 100,00 %
05.03.2017 14:20 6,7 C 79 % 1006,0 hPa 0,0 l/m 11,5 km/h (2 Bft) S 177 0 min 0,000 mm 0,0 UV-I 72 W/m 3,3 C 3,0 C 16,1 km/h (3 Bft) 100,00 %
05.03.2017 14:22 6,7 C 79 % 1006,0 hPa 0,0 l/m 10,7 km/h (2 Bft) W 278 0 min 0,000 mm 0,0 UV-I 72 W/m 3,3 C 3,5 C 17,7 km/h (3 Bft) 100,00 %
05.03.2017 14:24 6,7 C 79 % 1006,0 hPa 0,0 l/m 12,0 km/h (2 Bft) S-SW 206 0 min 0,000 mm 0,0 UV-I 70 W/m 3,3 C 2,7 C 19,3 km/h (3 Bft) 98,00 %
05.03.2017 14:26 6,7 C 80 % 1006,0 hPa 0,0 l/m 12,5 km/h (3 Bft) SW 225 0 min 0,000 mm 0,0 UV-I 66 W/m 3,5 C 2,4 C 19,3 km/h (3 Bft) 98,00 %
05.03.2017 14:29 6,6 C 79 % 1005,9 hPa 0,0 l/m 12,4 km/h (3 Bft) SW 234 0 min 0,000 mm 0,0 UV-I 63 W/m 3,2 C 2,4 C 20,9 km/h (4 Bft) 95,59 %
05.03.2017 14:30 6,6 C 80 % 1005,9 hPa 0,0 l/m 11,9 km/h (2 Bft) W-SW 240 0 min 0,000 mm 0,0 UV-I 63 W/m 3,4 C 2,7 C 17,7 km/h (3 Bft) 100,00 %
05.03.2017 14:32 6,6 C 80 % 1005,9 hPa 0,0 l/m 13,3 km/h (3 Bft) SW 215 0 min 0,000 mm 0,0 UV-I 63 W/m 3,4 C 1,9 C 17,7 km/h (3 Bft) 96,43 %
05.03.2017 14:34 6,6 C 80 % 1005,9 hPa 0,0 l/m 14,4 km/h (3 Bft) W-SW 244 0 min 0,000 mm 0,0 UV-I 61 W/m 3,4 C 1,3 C 20,9 km/h (4 Bft) 95,74 %
05.03.2017 14:36 6,6 C 80 % 1005,9 hPa 0,0 l/m 9,6 km/h (2 Bft) S 191 0 min 0,000 mm 0,0 UV-I 61 W/m 3,4 C 4,1 C 16,1 km/h (3 Bft) 96,00 %
05.03.2017 14:38 6,6 C 80 % 1005,9 hPa 0,0 l/m 15,8 km/h (3 Bft) SW 235 0 min 0,000 mm 0,0 UV-I 62 W/m 3,4 C 0,6 C 22,5 km/h (4 Bft) 100,00 %
05.03.2017 14:40 6,6 C 79 % 1005,9 hPa 0,0 l/m 12,4 km/h (3 Bft) W 263 0 min 0,000 mm 0,0 UV-I 63 W/m 3,2 C 2,4 C 22,5 km/h (4 Bft) 95,45 %
05.03.2017 14:42 6,6 C 79 % 1005,9 hPa 0,0 l/m 12,7 km/h (3 Bft) W-SW 239 0 min 0,000 mm 0,0 UV-I 67 W/m 3,2 C 2,2 C 17,7 km/h (3 Bft) 98,31 %
05.03.2017 14:44 6,6 C 79 % 1005,8 hPa 0,0 l/m 12,6 km/h (3 Bft) SW 234 0 min 0,000 mm 0,0 UV-I 71 W/m 3,2 C 2,3 C 17,7 km/h (3 Bft) 100,00 %
05.03.2017 14:46 6,6 C 80 % 1005,8 hPa 0,0 l/m 13,5 km/h (3 Bft) W-SW 251 0 min 0,000 mm 0,0 UV-I 72 W/m 3,4 C 1,8 C 20,9 km/h (4 Bft) 96,92 %
05.03.2017 14:48 6,6 C 80 % 1005,8 hPa 0,0 l/m 11,1 km/h (2 Bft) S-SW 200 0 min 0,000 mm 0,0 UV-I 67 W/m 3,4 C 3,1 C 14,5 km/h (3 Bft) 96,23 %
05.03.2017 14:50 6,6 C 80 % 1005,8 hPa 0,0 l/m 12,6 km/h (3 Bft) SW 232 0 min 0,000 mm 0,0 UV-I 62 W/m 3,4 C 2,3 C 17,7 km/h (3 Bft) 97,56 %
05.03.2017 14:52 6,6 C 79 % 1005,8 hPa 0,0 l/m 14,7 km/h (3 Bft) SW 236 0 min 0,000 mm 0,0 UV-I 66 W/m 3,2 C 1,2 C 20,9 km/h (4 Bft) 97,73 %
05.03.2017 14:54 6,6 C 80 % 1005,8 hPa 0,0 l/m 10,9 km/h (2 Bft) SW 236 0 min 0,000 mm 0,0 UV-I 69 W/m 3,4 C 3,3 C 19,3 km/h (3 Bft) 96,43 %
05.03.2017 14:56 6,6 C 80 % 1005,7 hPa 0,0 l/m 11,0 km/h (2 Bft) SW 227 0 min 0,000 mm 0,0 UV-I 68 W/m 3,4 C 3,2 C 16,1 km/h (3 Bft) 95,12 %
05.03.2017 14:59 6,5 C 80 % 1005,7 hPa 0,0 l/m 10,7 km/h (2 Bft) SW 216 0 min 0,000 mm 0,0 UV-I 63 W/m 3,3 C 3,3 C 17,7 km/h (3 Bft) 98,31 %
05.03.2017 15:00 6,5 C 80 % 1005,7 hPa 0,0 l/m 7,0 km/h (2 Bft) S-SW 201 0 min 0,000 mm 0,0 UV-I 62 W/m 3,3 C 6,0 C 12,9 km/h (3 Bft) 100,00 %
05.03.2017 15:02 6,5 C 80 % 1005,7 hPa 0,0 l/m 7,6 km/h (2 Bft) S-SW 213 0 min 0,051 mm 0,0 UV-I 59 W/m 3,3 C 5,5 C 16,1 km/h (3 Bft) 100,00 %
05.03.2017 15:04 6,5 C 80 % 1005,6 hPa 0,0 l/m 6,4 km/h (2 Bft) SW 228 0 min 0,000 mm 0,0 UV-I 56 W/m 3,3 C 6,5 C 11,3 km/h (2 Bft) 94,74 %
05.03.2017 15:06 6,5 C 80 % 1005,6 hPa 0,0 l/m 8,3 km/h (2 Bft) S-SW 193 0 min 0,000 mm 0,0 UV-I 57 W/m 3,3 C 4,9 C 12,9 km/h (3 Bft) 100,00 %
05.03.2017 15:08 6,5 C 80 % 1005,5 hPa 0,0 l/m 6,8 km/h (2 Bft) S-SW 209 0 min 0,000 mm 0,0 UV-I 62 W/m 3,3 C 6,2 C 12,9 km/h (3 Bft) 100,00 %
05.03.2017 15:10 6,5 C 80 % 1005,5 hPa 0,0 l/m 5,6 km/h (1 Bft) SW 214 0 min 0,000 mm 0,0 UV-I 62 W/m 3,3 C 6,5 C 11,3 km/h (2 Bft) 100,00 %
05.03.2017 15:12 6,5 C 80 % 1005,5 hPa 0,0 l/m 7,1 km/h (2 Bft) S-SW 200 0 min 0,000 mm 0,0 UV-I 62 W/m 3,3 C 5,9 C 9,7 km/h (2 Bft) 100,00 %
05.03.2017 15:14 6,5 C 80 % 1005,4 hPa 0,0 l/m 6,8 km/h (2 Bft) SW 229 0 min 0,000 mm 0,0 UV-I 64 W/m 3,3 C 6,2 C 9,7 km/h (2 Bft) 100,00 %
05.03.2017 15:16 6,5 C 80 % 1005,4 hPa 0,0 l/m 6,3 km/h (2 Bft) W-SW 241 0 min 0,000 mm 0,0 UV-I 67 W/m 3,3 C 6,5 C 9,7 km/h (2 Bft) 100,00 %
05.03.2017 15:18 6,5 C 79 % 1005,3 hPa 0,0 l/m 7,1 km/h (2 Bft) SW 224 0 min 0,000 mm 0,0 UV-I 64 W/m 3,1 C 5,9 C 11,3 km/h (2 Bft) 100,00 %
05.03.2017 15:20 6,5 C 79 % 1005,2 hPa 0,0 l/m 5,0 km/h (1 Bft) SW 227 0 min 0,000 mm 0,0 UV-I 59 W/m 3,1 C 6,5 C 9,7 km/h (2 Bft) 98,00 %
05.03.2017 15:22 6,4 C 79 % 1005,2 hPa 0,0 l/m 2,8 km/h (1 Bft) S 178 0 min 0,000 mm 0,0 UV-I 56 W/m 3,0 C 6,4 C 6,4 km/h (2 Bft) 100,00 %
05.03.2017 15:24 6,4 C 79 % 1005,1 hPa 0,0 l/m 4,1 km/h (1 Bft) SW 224 0 min 0,000 mm 0,0 UV-I 58 W/m 3,0 C 6,4 C 6,4 km/h (2 Bft) 97,56 %
05.03.2017 15:26 6,5 C 79 % 1005,1 hPa 0,0 l/m 3,6 km/h (1 Bft) SW 224 0 min 0,000 mm 0,0 UV-I 62 W/m 3,1 C 6,5 C 6,4 km/h (2 Bft) 100,00 %
05.03.2017 15:28 6,5 C 79 % 1005,1 hPa 0,0 l/m 5,6 km/h (1 Bft) S-SW 194 0 min 0,000 mm 0,0 UV-I 64 W/m 3,1 C 6,5 C 9,7 km/h (2 Bft) 100,00 %
05.03.2017 15:30 6,5 C 79 % 1005,1 hPa 0,0 l/m 4,3 km/h (1 Bft) S-SW 209 0 min 0,000 mm 0,0 UV-I 67 W/m 3,1 C 6,5 C 8,0 km/h (2 Bft) 97,56 %
05.03.2017 15:32 6,5 C 80 % 1005,1 hPa 0,0 l/m 3,1 km/h (1 Bft) S-SW 211 0 min 0,000 mm 0,0 UV-I 70 W/m 3,3 C 6,5 C 4,8 km/h (1 Bft) 100,00 %
05.03.2017 15:34 6,5 C 79 % 1005,0 hPa 0,0 l/m 3,2 km/h (1 Bft) S-SW 211 0 min 0,000 mm 0,0 UV-I 74 W/m 3,1 C 6,5 C 4,8 km/h (1 Bft) 100,00 %
05.03.2017 15:36 6,6 C 79 % 1005,0 hPa 0,0 l/m 3,4 km/h (1 Bft) S-SW 205 0 min 0,000 mm 0,0 UV-I 78 W/m 3,2 C 6,6 C 6,4 km/h (2 Bft) 97,87 %
05.03.2017 15:38 6,6 C 79 % 1005,0 hPa 0,0 l/m 2,4 km/h (1 Bft) S 189 0 min 0,000 mm 0,0 UV-I 80 W/m 3,2 C 6,6 C 4,8 km/h (1 Bft) 100,00 %
05.03.2017 15:40 6,6 C 79 % 1005,0 hPa 0,0 l/m 4,3 km/h (1 Bft) SW 227 0 min 0,000 mm 0,0 UV-I 81 W/m 3,2 C 6,6 C 6,4 km/h (2 Bft) 100,00 %
05.03.2017 15:42 6,6 C 79 % 1005,0 hPa 0,0 l/m 4,7 km/h (1 Bft) S-SW 192 0 min 0,000 mm 0,0 UV-I 83 W/m 3,2 C 6,6 C 8,0 km/h (2 Bft) 100,00 %
05.03.2017 15:44 6,6 C 78 % 1005,0 hPa 0,0 l/m 4,7 km/h (1 Bft) S-SW 192 0 min 0,000 mm 0,0 UV-I 85 W/m 3,0 C 6,6 C 6,4 km/h (2 Bft) 100,00 %
05.03.2017 15:46 6,6 C 78 % 1004,9 hPa 0,0 l/m 2,9 km/h (1 Bft) S-SW 192 0 min 0,000 mm 0,0 UV-I 91 W/m 3,0 C 6,6 C 6,4 km/h (2 Bft) 100,00 %
05.03.2017 15:48 6,6 C 79 % 1004,8 hPa 0,0 l/m 2,7 km/h (1 Bft) S-SW 192 0 min 0,000 mm 0,0 UV-I 96 W/m 3,2 C 6,6 C 4,8 km/h (1 Bft) 100,00 %
05.03.2017 15:50 6,7 C 79 % 1004,8 hPa 0,0 l/m 2,2 km/h (1 Bft) S-SW 193 0 min 0,000 mm 0,0 UV-I 103 W/m 3,3 C 6,7 C 3,2 km/h (1 Bft) 100,00 %
05.03.2017 15:52 6,7 C 78 % 1004,7 hPa 0,0 l/m 0,8 km/h (0 Bft) S-SW 193 0 min 0,000 mm 0,0 UV-I 111 W/m 3,1 C 6,7 C 3,2 km/h (1 Bft) 100,00 %
05.03.2017 15:54 6,7 C 78 % 1004,7 hPa 0,0 l/m 1,2 km/h (1 Bft) S 186 0 min 0,000 mm 0,0 UV-I 118 W/m 3,1 C 6,7 C 1,6 km/h (1 Bft) 100,00 %
05.03.2017 15:56 6,7 C 78 % 1004,7 hPa 0,0 l/m 1,6 km/h (1 Bft) S 184 0 min 0,000 mm 0,0 UV-I 114 W/m 3,1 C 6,7 C 3,2 km/h (1 Bft) 100,00 %
05.03.2017 15:58 6,7 C 78 % 1004,7 hPa 0,0 l/m 1,9 km/h (1 Bft) S 170 0 min 0,000 mm 0,0 UV-I 107 W/m 3,1 C 6,7 C 6,4 km/h (2 Bft) 100,00 %
05.03.2017 16:00 6,7 C 78 % 1004,6 hPa 0,0 l/m 1,9 km/h (1 Bft) S 171 0 min 0,051 mm 0,0 UV-I 104 W/m 3,1 C 6,7 C 3,2 km/h (1 Bft) 100,00 %
05.03.2017 16:02 6,8 C 78 % 1004,6 hPa 0,0 l/m 4,8 km/h (1 Bft) O-SO 121 0 min 0,000 mm 0,0 UV-I 102 W/m 3,2 C 6,8 C 6,4 km/h (2 Bft) 100,00 %
05.03.2017 16:04 6,8 C 78 % 1004,6 hPa 0,0 l/m 5,0 km/h (1 Bft) O-SO 113 0 min 0,000 mm 0,0 UV-I 100 W/m 3,2 C 6,8 C 9,7 km/h (2 Bft) 97,56 %
05.03.2017 16:06 6,8 C 78 % 1004,5 hPa 0,0 l/m 2,7 km/h (1 Bft) S-SO 155 0 min 0,000 mm 0,0 UV-I 99 W/m 3,2 C 6,8 C 6,4 km/h (2 Bft) 98,11 %
05.03.2017 16:08 6,8 C 78 % 1004,5 hPa 0,0 l/m 4,7 km/h (1 Bft) O-SO 123 0 min 0,000 mm 0,0 UV-I 97 W/m 3,2 C 6,8 C 9,7 km/h (2 Bft) 100,00 %
05.03.2017 16:10 6,8 C 78 % 1004,5 hPa 0,0 l/m 6,5 km/h (2 Bft) S-SO 153 0 min 0,000 mm 0,0 UV-I 93 W/m 3,2 C 6,7 C 11,3 km/h (2 Bft) 100,00 %
05.03.2017 16:12 6,8 C 78 % 1004,5 hPa 0,0 l/m 3,9 km/h (1 Bft) SO 144 0 min 0,000 mm 0,0 UV-I 89 W/m 3,2 C 6,8 C 6,4 km/h (2 Bft) 100,00 %
05.03.2017 16:14 6,8 C 78 % 1004,4 hPa 0,0 l/m 2,4 km/h (1 Bft) SO 143 0 min 0,000 mm 0,0 UV-I 84 W/m 3,2 C 6,8 C 4,8 km/h (1 Bft) 100,00 %
05.03.2017 16:16 6,8 C 77 % 1004,4 hPa 0,0 l/m 6,0 km/h (2 Bft) O-SO 122 0 min 0,000 mm 0,0 UV-I 77 W/m 3,1 C 6,8 C 8,0 km/h (2 Bft) 100,00 %
05.03.2017 16:18 6,8 C 78 % 1004,4 hPa 0,0 l/m 4,4 km/h (1 Bft) O-SO 122 0 min 0,000 mm 0,0 UV-I 76 W/m 3,2 C 6,8 C 8,0 km/h (2 Bft) 100,00 %
05.03.2017 16:20 6,8 C 77 % 1004,4 hPa 0,0 l/m 2,5 km/h (1 Bft) SO 141 0 min 0,000 mm 0,0 UV-I 76 W/m 3,1 C 6,8 C 4,8 km/h (1 Bft) 100,00 %
05.03.2017 16:22 6,8 C 77 % 1004,3 hPa 0,0 l/m 1,4 km/h (1 Bft) SO 141 0 min 0,000 mm 0,0 UV-I 78 W/m 3,1 C 6,8 C 3,2 km/h (1 Bft) 94,74 %
05.03.2017 16:24 6,8 C 77 % 1004,3 hPa 0,0 l/m 3,3 km/h (1 Bft) SO 127 0 min 0,000 mm 0,0 UV-I 81 W/m 3,1 C 6,8 C 6,4 km/h (2 Bft) 100,00 %
05.03.2017 16:26 6,9 C 77 % 1004,3 hPa 0,0 l/m 3,2 km/h (1 Bft) SO 130 0 min 0,000 mm 0,0 UV-I 81 W/m 3,2 C 6,9 C 6,4 km/h (2 Bft) 97,87 %
05.03.2017 16:28 6,9 C 77 % 1004,3 hPa 0,0 l/m 2,2 km/h (1 Bft) SO 143 0 min 0,000 mm 0,0 UV-I 77 W/m 3,2 C 6,9 C 4,8 km/h (1 Bft) 98,00 %
05.03.2017 16:30 6,9 C 77 % 1004,3 hPa 0,0 l/m 1,7 km/h (1 Bft) SO 143 0 min 0,000 mm 0,0 UV-I 73 W/m 3,2 C 6,9 C 3,2 km/h (1 Bft) 96,00 %
05.03.2017 16:32 6,8 C 77 % 1004,2 hPa 0,0 l/m 3,3 km/h (1 Bft) SO 143 0 min 0,000 mm 0,0 UV-I 67 W/m 3,1 C 6,8 C 6,4 km/h (2 Bft) 95,83 %
05.03.2017 16:34 6,8 C 76 % 1004,1 hPa 0,0 l/m 3,0 km/h (1 Bft) SO 143 0 min 0,000 mm 0,0 UV-I 60 W/m 2,9 C 6,8 C 4,8 km/h (1 Bft) 95,71 %
05.03.2017 16:36 6,8 C 77 % 1004,1 hPa 0,0 l/m 4,1 km/h (1 Bft) SO 126 0 min 0,000 mm 0,0 UV-I 55 W/m 3,1 C 6,8 C 6,4 km/h (2 Bft) 94,00 %
05.03.2017 16:38 6,8 C 78 % 1004,0 hPa 0,0 l/m 4,4 km/h (1 Bft) SO 126 0 min 0,000 mm 0,0 UV-I 48 W/m 3,2 C 6,8 C 6,4 km/h (2 Bft) 96,67 %
05.03.2017 16:40 6,8 C 77 % 1004,0 hPa 0,0 l/m 5,4 km/h (1 Bft) SO 124 0 min 0,000 mm 0,0 UV-I 44 W/m 3,1 C 6,8 C 8,0 km/h (2 Bft) 94,64 %
05.03.2017 16:42 6,8 C 78 % 1003,9 hPa 0,0 l/m 6,2 km/h (2 Bft) O-SO 102 0 min 0,000 mm 0,0 UV-I 38 W/m 3,2 C 6,8 C 11,3 km/h (2 Bft) 92,45 %
05.03.2017 16:44 6,8 C 78 % 1003,9 hPa 0,0 l/m 6,9 km/h (2 Bft) O 90 0 min 0,000 mm 0,0 UV-I 34 W/m 3,2 C 6,4 C 9,7 km/h (2 Bft) 92,00 %
05.03.2017 16:46 6,7 C 78 % 1003,8 hPa 0,0 l/m 5,1 km/h (1 Bft) O 87 0 min 0,000 mm 0,0 UV-I 32 W/m 3,1 C 6,7 C 6,4 km/h (2 Bft) 95,12 %
05.03.2017 16:48 6,7 C 78 % 1003,8 hPa 0,0 l/m 5,2 km/h (1 Bft) O-NO 74 0 min 0,000 mm 0,0 UV-I 32 W/m 3,1 C 6,7 C 8,0 km/h (2 Bft) 93,18 %
05.03.2017 16:50 6,7 C 78 % 1003,8 hPa 0,0 l/m 7,0 km/h (2 Bft) O-SO 113 0 min 0,000 mm 0,0 UV-I 32 W/m 3,1 C 6,2 C 11,3 km/h (2 Bft) 94,00 %
05.03.2017 16:52 6,7 C 78 % 1003,7 hPa 0,0 l/m 4,8 km/h (1 Bft) O-SO 107 0 min 0,000 mm 0,0 UV-I 34 W/m 3,1 C 6,7 C 6,4 km/h (2 Bft) 92,68 %
05.03.2017 16:54 6,6 C 78 % 1003,7 hPa 0,0 l/m 6,1 km/h (2 Bft) O-NO 77 0 min 0,000 mm 0,0 UV-I 36 W/m 3,0 C 6,6 C 8,0 km/h (2 Bft) 92,45 %
05.03.2017 16:56 6,6 C 78 % 1003,7 hPa 0,0 l/m 4,8 km/h (1 Bft) O 92 0 min 0,000 mm 0,0 UV-I 40 W/m 3,0 C 6,6 C 6,4 km/h (2 Bft) 93,62 %
05.03.2017 16:58 6,6 C 78 % 1003,7 hPa 0,0 l/m 4,0 km/h (1 Bft) O 94 0 min 0,000 mm 0,0 UV-I 43 W/m 3,0 C 6,6 C 6,4 km/h (2 Bft) 90,00 %
05.03.2017 17:00 6,6 C 78 % 1003,7 hPa 0,0 l/m 5,0 km/h (1 Bft) O 90 0 min 0,051 mm 0,0 UV-I 47 W/m 3,0 C 6,6 C 9,7 km/h (2 Bft) 92,11 %
05.03.2017 17:02 6,6 C 78 % 1003,7 hPa 0,0 l/m 4,0 km/h (1 Bft) O-NO 77 0 min 0,000 mm 0,0 UV-I 51 W/m 3,0 C 6,6 C 6,4 km/h (2 Bft) 91,49 %
05.03.2017 17:04 6,6 C 79 % 1003,7 hPa 0,0 l/m 3,1 km/h (1 Bft) O 94 0 min 0,000 mm 0,0 UV-I 57 W/m 3,2 C 6,6 C 4,8 km/h (1 Bft) 92,00 %
05.03.2017 17:06 6,6 C 79 % 1003,7 hPa 0,0 l/m 2,9 km/h (1 Bft) O 94 0 min 0,000 mm 0,0 UV-I 62 W/m 3,2 C 6,6 C 4,8 km/h (1 Bft) 97,56 %
05.03.2017 17:08 6,6 C 79 % 1003,6 hPa 0,0 l/m 5,2 km/h (1 Bft) O-SO 103 0 min 0,000 mm 0,0 UV-I 63 W/m 3,2 C 6,6 C 6,4 km/h (2 Bft) 92,00 %
05.03.2017 17:10 6,6 C 79 % 1003,6 hPa 0,0 l/m 5,3 km/h (1 Bft) O-SO 109 2 min 0,000 mm 0,0 UV-I 69 W/m 3,2 C 6,6 C 6,4 km/h (2 Bft) 84,91 %
05.03.2017 17:12 6,6 C 79 % 1003,6 hPa 0,0 l/m 3,6 km/h (1 Bft) O-SO 103 2 min 0,000 mm 0,0 UV-I 96 W/m 3,2 C 6,6 C 4,8 km/h (1 Bft) 92,31 %
05.03.2017 17:14 6,6 C 79 % 1003,6 hPa 0,0 l/m 3,5 km/h (1 Bft) O 101 2 min 0,000 mm 0,0 UV-I 92 W/m 3,2 C 6,6 C 4,8 km/h (1 Bft) 98,08 %
05.03.2017 17:16 6,6 C 79 % 1003,5 hPa 0,0 l/m 2,5 km/h (1 Bft) O 101 2 min 0,000 mm 0,0 UV-I 100 W/m 3,2 C 6,6 C 4,8 km/h (1 Bft) 94,00 %
05.03.2017 17:19 6,7 C 79 % 1003,4 hPa 0,0 l/m 3,8 km/h (1 Bft) O-SO 107 3 min 0,000 mm 0,0 UV-I 100 W/m 3,3 C 6,7 C 6,4 km/h (2 Bft) 93,85 %
05.03.2017 17:20 6,7 C 79 % 1003,4 hPa 0,0 l/m 2,7 km/h (1 Bft) O 94 1 min 0,000 mm 0,0 UV-I 96 W/m 3,3 C 6,7 C 4,8 km/h (1 Bft) 95,83 %
05.03.2017 17:22 6,7 C 79 % 1003,5 hPa 0,0 l/m 2,9 km/h (1 Bft) O-SO 113 2 min 0,000 mm 0,0 UV-I 94 W/m 3,3 C 6,7 C 4,8 km/h (1 Bft) 94,34 %
05.03.2017 17:24 6,7 C 79 % 1003,5 hPa 0,0 l/m 4,4 km/h (1 Bft) O-SO 117 2 min 0,000 mm 0,0 UV-I 96 W/m 3,3 C 6,7 C 4,8 km/h (1 Bft) 89,47 %
05.03.2017 17:26 6,8 C 79 % 1003,5 hPa 0,0 l/m 4,2 km/h (1 Bft) SO 135 2 min 0,000 mm 0,0 UV-I 70 W/m 3,4 C 6,8 C 6,4 km/h (2 Bft) 94,00 %
05.03.2017 17:28 6,8 C 78 % 1003,4 hPa 0,0 l/m 5,6 km/h (1 Bft) O-SO 122 2 min 0,000 mm 0,0 UV-I 64 W/m 3,2 C 6,8 C 8,0 km/h (2 Bft) 91,67 %
05.03.2017 17:30 6,8 C 78 % 1003,4 hPa 0,0 l/m 5,1 km/h (1 Bft) SO 136 2 min 0,000 mm 0,0 UV-I 58 W/m 3,2 C 6,8 C 9,7 km/h (2 Bft) 96,20 %
05.03.2017 17:32 6,8 C 78 % 1003,3 hPa 0,0 l/m 5,0 km/h (1 Bft) O-SO 105 2 min 0,000 mm 0,0 UV-I 52 W/m 3,2 C 6,8 C 6,4 km/h (2 Bft) 94,34 %
05.03.2017 17:34 6,8 C 78 % 1003,3 hPa 0,0 l/m 3,9 km/h (1 Bft) O-SO 103 2 min 0,000 mm 0,0 UV-I 46 W/m 3,2 C 6,8 C 4,8 km/h (1 Bft) 92,11 %
05.03.2017 17:36 6,8 C 78 % 1003,2 hPa 0,0 l/m 4,2 km/h (1 Bft) O-NO 78 2 min 0,000 mm 0,0 UV-I 40 W/m 3,2 C 6,8 C 6,4 km/h (2 Bft) 96,00 %
05.03.2017 17:38 6,8 C 78 % 1003,2 hPa 0,0 l/m 4,7 km/h (1 Bft) O-NO 75 2 min 0,000 mm 0,0 UV-I 41 W/m 3,2 C 6,8 C 6,4 km/h (2 Bft) 96,00 %
05.03.2017 17:40 6,7 C 78 % 1003,3 hPa 0,0 l/m 5,0 km/h (1 Bft) O-SO 110 2 min 0,000 mm 0,0 UV-I 28 W/m 3,1 C 6,7 C 6,4 km/h (2 Bft) 92,45 %
05.03.2017 17:42 6,6 C 78 % 1003,3 hPa 0,0 l/m 1,9 km/h (1 Bft) O-SO 110 2 min 0,000 mm 0,0 UV-I 22 W/m 3,0 C 6,6 C 4,8 km/h (1 Bft) 94,74 %
05.03.2017 17:44 6,5 C 78 % 1003,3 hPa 0,0 l/m 2,4 km/h (1 Bft) O-SO 110 0 min 0,000 mm 0,0 UV-I 15 W/m 2,9 C 6,5 C 3,2 km/h (1 Bft) 95,74 %
05.03.2017 17:46 6,4 C 79 % 1003,3 hPa 0,0 l/m 2,8 km/h (1 Bft) O-SO 102 0 min 0,000 mm 0,0 UV-I 18 W/m 3,0 C 6,4 C 6,4 km/h (2 Bft) 94,00 %
05.03.2017 17:48 6,3 C 79 % 1003,4 hPa 0,0 l/m 3,7 km/h (1 Bft) O-SO 102 0 min 0,000 mm 0,0 UV-I 14 W/m 2,9 C 6,3 C 6,4 km/h (2 Bft) 98,00 %
05.03.2017 17:50 6,3 C 79 % 1003,4 hPa 0,0 l/m 2,2 km/h (1 Bft) O-SO 102 0 min 0,000 mm 0,0 UV-I 10 W/m 2,9 C 6,3 C 4,8 km/h (1 Bft) 94,74 %
05.03.2017 17:52 6,3 C 79 % 1003,4 hPa 0,0 l/m 2,0 km/h (1 Bft) O-SO 102 0 min 0,000 mm 0,0 UV-I 9 W/m 2,9 C 6,3 C 3,2 km/h (1 Bft) 96,43 %
05.03.2017 17:54 6,2 C 79 % 1003,4 hPa 0,0 l/m 0,6 km/h (0 Bft) O-SO 102 0 min 0,000 mm 0,0 UV-I 7 W/m 2,8 C 6,2 C 1,6 km/h (1 Bft) 97,44 %
05.03.2017 17:56 6,2 C 79 % 1003,4 hPa 0,0 l/m 0,4 km/h (0 Bft) O-SO 102 0 min 0,000 mm 0,0 UV-I 7 W/m 2,8 C 6,2 C 1,6 km/h (1 Bft) 98,00 %
05.03.2017 17:58 6,2 C 79 % 1003,5 hPa 0,0 l/m 0,0 km/h (0 Bft) O-SO 102 0 min 0,000 mm 0,0 UV-I 6 W/m 2,8 C 6,2 C 0,0 km/h (0 Bft) 89,47 %
05.03.2017 18:00 6,1 C 79 % 1003,5 hPa 0,0 l/m 0,2 km/h (0 Bft) O-SO 102 0 min 0,000 mm 0,0 UV-I 5 W/m 2,7 C 6,1 C 1,6 km/h (1 Bft) 98,39 %
05.03.2017 18:02 6,1 C 79 % 1003,5 hPa 0,0 l/m 0,0 km/h (0 Bft) O-SO 102 0 min 0,025 mm 0,0 UV-I 5 W/m 2,7 C 6,1 C 0,0 km/h (0 Bft) 100,00 %
05.03.2017 18:04 6,1 C 79 % 1003,5 hPa 0,0 l/m 0,0 km/h (0 Bft) O-SO 102 0 min 0,000 mm 0,0 UV-I 5 W/m 2,7 C 6,1 C 0,0 km/h (0 Bft) 96,00 %
05.03.2017 18:06 6,0 C 79 % 1003,5 hPa 0,0 l/m 0,3 km/h (0 Bft) O-SO 102 0 min 0,000 mm 0,0 UV-I 3 W/m 2,6 C 6,0 C 1,6 km/h (1 Bft) 100,00 %
05.03.2017 18:08 5,9 C 79 % 1003,5 hPa 0,0 l/m 1,6 km/h (1 Bft) O-SO 102 0 min 0,000 mm 0,0 UV-I 0 W/m 2,5 C 5,9 C 3,2 km/h (1 Bft) 97,37 %
05.03.2017 18:10 5,9 C 78 % 1003,5 hPa 0,0 l/m 2,9 km/h (1 Bft) O-SO 102 0 min 0,000 mm 0,0 UV-I 0 W/m 2,4 C 5,9 C 4,8 km/h (1 Bft) 100,00 %
05.03.2017 18:12 6,0 C 78 % 1003,5 hPa 0,0 l/m 3,7 km/h (1 Bft) O-SO 102 0 min 0,000 mm 0,0 UV-I 0 W/m 2,5 C 6,0 C 4,8 km/h (1 Bft) 96,23 %
05.03.2017 18:14 5,9 C 78 % 1003,4 hPa 0,0 l/m 3,3 km/h (1 Bft) O-SO 102 0 min 0,000 mm 0,0 UV-I 0 W/m 2,4 C 5,9 C 4,8 km/h (1 Bft) 95,74 %
05.03.2017 18:16 5,9 C 78 % 1003,4 hPa 0,0 l/m 4,3 km/h (1 Bft) O 101 0 min 0,000 mm 0,0 UV-I 0 W/m 2,4 C 5,9 C 4,8 km/h (1 Bft) 97,87 %
05.03.2017 18:19 5,8 C 78 % 1003,5 hPa 0,0 l/m 4,4 km/h (1 Bft) O 94 0 min 0,000 mm 0,0 UV-I 0 W/m 2,3 C 5,8 C 6,4 km/h (2 Bft) 96,92 %
05.03.2017 18:20 5,7 C 78 % 1003,5 hPa 0,0 l/m 4,9 km/h (1 Bft) O 94 0 min 0,000 mm 0,0 UV-I 0 W/m 2,2 C 5,7 C 6,4 km/h (2 Bft) 96,15 %
05.03.2017 18:22 5,4 C 79 % 1003,5 hPa 0,0 l/m 3,7 km/h (1 Bft) O 94 0 min 0,000 mm 0,0 UV-I 0 W/m 2,1 C 5,4 C 6,4 km/h (2 Bft) 93,18 %
05.03.2017 18:24 5,2 C 80 % 1003,5 hPa 0,0 l/m 3,8 km/h (1 Bft) O 94 0 min 0,000 mm 0,0 UV-I 0 W/m 2,0 C 5,2 C 4,8 km/h (1 Bft) 100,00 %
05.03.2017 18:26 5,0 C 81 % 1003,5 hPa 0,0 l/m 3,5 km/h (1 Bft) O 93 0 min 0,000 mm 0,0 UV-I 0 W/m 2,0 C 5,0 C 6,4 km/h (2 Bft) 94,34 %
05.03.2017 18:29 4,9 C 81 % 1003,5 hPa 0,0 l/m 2,9 km/h (1 Bft) O 93 0 min 0,000 mm 0,0 UV-I 0 W/m 1,9 C 4,9 C 4,8 km/h (1 Bft) 100,00 %
05.03.2017 18:30 4,9 C 81 % 1003,5 hPa 0,0 l/m 1,8 km/h (1 Bft) O 93 0 min 0,000 mm 0,0 UV-I 0 W/m 1,9 C 4,9 C 3,2 km/h (1 Bft) 100,00 %
05.03.2017 18:32 4,9 C 82 % 1003,5 hPa 0,0 l/m 0,8 km/h (0 Bft) O 93 0 min 0,000 mm 0,0 UV-I 0 W/m 2,1 C 4,9 C 1,6 km/h (1 Bft) 88,64 %
05.03.2017 18:34 4,8 C 82 % 1003,6 hPa 0,0 l/m 0,0 km/h (0 Bft) O 93 0 min 0,000 mm 0,0 UV-I 0 W/m 2,0 C 4,8 C 0,0 km/h (0 Bft) 97,92 %
05.03.2017 18:36 4,7 C 82 % 1003,6 hPa 0,0 l/m 0,0 km/h (0 Bft) O 93 0 min 0,000 mm 0,0 UV-I 0 W/m 1,9 C 4,7 C 0,0 km/h (0 Bft) 95,74 %
05.03.2017 18:38 4,6 C 83 % 1003,6 hPa 0,0 l/m 0,0 km/h (0 Bft) O 93 0 min 0,000 mm 0,0 UV-I 0 W/m 2,0 C 4,6 C 1,6 km/h (1 Bft) 96,00 %
05.03.2017 18:40 4,3 C 83 % 1003,6 hPa 0,0 l/m 0,0 km/h (0 Bft) O 93 0 min 0,000 mm 0,0 UV-I 0 W/m 1,7 C 4,3 C 0,0 km/h (0 Bft) 90,00 %
05.03.2017 18:42 4,2 C 85 % 1003,6 hPa 0,0 l/m 0,0 km/h (0 Bft) O 93 0 min 0,000 mm 0,0 UV-I 0 W/m 1,9 C 4,2 C 0,0 km/h (0 Bft) 94,74 %
05.03.2017 18:44 4,2 C 85 % 1003,6 hPa 0,0 l/m 0,0 km/h (0 Bft) O 93 0 min 0,000 mm 0,0 UV-I 0 W/m 1,9 C 4,2 C 0,0 km/h (0 Bft) 98,00 %
05.03.2017 18:46 4,2 C 85 % 1003,6 hPa 0,0 l/m 0,0 km/h (0 Bft) O 93 0 min 0,000 mm 0,0 UV-I 0 W/m 1,9 C 4,2 C 0,0 km/h (0 Bft) 90,57 %
05.03.2017 18:48 4,1 C 86 % 1003,7 hPa 0,0 l/m 0,0 km/h (0 Bft) O 93 0 min 0,000 mm 0,0 UV-I 0 W/m 2,0 C 4,1 C 0,0 km/h (0 Bft) 95,12 %
05.03.2017 18:50 4,1 C 86 % 1003,8 hPa 0,0 l/m 0,0 km/h (0 Bft) O 93 0 min 0,000 mm 0,0 UV-I 0 W/m 2,0 C 4,1 C 0,0 km/h (0 Bft) 95,74 %
05.03.2017 18:52 4,1 C 86 % 1003,7 hPa 0,0 l/m 0,0 km/h (0 Bft) O 93 0 min 0,000 mm 0,0 UV-I 0 W/m 2,0 C 4,1 C 0,0 km/h (0 Bft) 97,73 %
05.03.2017 18:54 4,0 C 86 % 1003,8 hPa 0,0 l/m 0,0 km/h (0 Bft) O 93 0 min 0,000 mm 0,0 UV-I 0 W/m 1,9 C 4,0 C 1,6 km/h (1 Bft) 94,00 %
05.03.2017 18:56 3,9 C 86 % 1003,7 hPa 0,0 l/m 1,3 km/h (1 Bft) O 93 0 min 0,000 mm 0,0 UV-I 0 W/m 1,8 C 3,9 C 3,2 km/h (1 Bft) 94,00 %
05.03.2017 18:58 3,9 C 86 % 1003,8 hPa 0,0 l/m 2,9 km/h (1 Bft) O 93 0 min 0,000 mm 0,0 UV-I 0 W/m 1,8 C 3,9 C 4,8 km/h (1 Bft) 96,00 %
05.03.2017 19:00 4,1 C 87 % 1003,7 hPa 0,0 l/m 4,9 km/h (1 Bft) O-NO 70 0 min 0,000 mm 0,0 UV-I 0 W/m 2,1 C 4,1 C 6,4 km/h (2 Bft) 97,14 %
05.03.2017 19:02 4,2 C 87 % 1003,6 hPa 0,0 l/m 5,2 km/h (1 Bft) O-NO 69 0 min 0,000 mm 0,0 UV-I 0 W/m 2,2 C 4,2 C 6,4 km/h (2 Bft) 98,21 %
05.03.2017 19:04 4,4 C 86 % 1003,6 hPa 0,0 l/m 5,4 km/h (1 Bft) O-NO 64 0 min 0,000 mm 0,0 UV-I 0 W/m 2,3 C 4,4 C 6,4 km/h (2 Bft) 92,11 %
05.03.2017 19:06 4,4 C 86 % 1003,6 hPa 0,0 l/m 5,7 km/h (1 Bft) O-NO 61 0 min 0,000 mm 0,0 UV-I 0 W/m 2,3 C 4,4 C 8,0 km/h (2 Bft) 94,00 %
05.03.2017 19:09 4,5 C 86 % 1003,5 hPa 0,0 l/m 5,3 km/h (1 Bft) NO 51 0 min 0,000 mm 0,0 UV-I 0 W/m 2,4 C 4,5 C 8,0 km/h (2 Bft) 94,37 %
05.03.2017 19:10 4,6 C 86 % 1003,5 hPa 0,0 l/m 4,8 km/h (1 Bft) NO 51 0 min 0,000 mm 0,0 UV-I 0 W/m 2,5 C 4,6 C 6,4 km/h (2 Bft) 96,15 %
05.03.2017 19:12 4,6 C 85 % 1003,6 hPa 0,0 l/m 3,4 km/h (1 Bft) NO 51 0 min 0,000 mm 0,0 UV-I 0 W/m 2,3 C 4,6 C 4,8 km/h (1 Bft) 86,00 %
05.03.2017 19:14 4,5 C 85 % 1003,5 hPa 0,0 l/m 2,7 km/h (1 Bft) NO 51 0 min 0,000 mm 0,0 UV-I 0 W/m 2,2 C 4,5 C 4,8 km/h (1 Bft) 100,00 %
05.03.2017 19:16 4,3 C 85 % 1003,5 hPa 0,0 l/m 0,2 km/h (0 Bft) NO 51 0 min 0,000 mm 0,0 UV-I 0 W/m 2,0 C 4,3 C 1,6 km/h (1 Bft) 96,00 %
05.03.2017 19:18 3,9 C 84 % 1003,6 hPa 0,0 l/m 1,3 km/h (1 Bft) NO 51 0 min 0,000 mm 0,0 UV-I 0 W/m 1,4 C 3,9 C 3,2 km/h (1 Bft) 97,37 %
05.03.2017 19:20 3,6 C 85 % 1003,6 hPa 0,0 l/m 0,1 km/h (0 Bft) NO 51 0 min 0,000 mm 0,0 UV-I 0 W/m 1,3 C 3,6 C 1,6 km/h (1 Bft) 92,86 %
05.03.2017 19:22 3,3 C 86 % 1003,6 hPa 0,0 l/m 1,4 km/h (1 Bft) NO 51 0 min 0,000 mm 0,0 UV-I 0 W/m 1,2 C 3,3 C 3,2 km/h (1 Bft) 98,00 %
05.03.2017 19:24 3,1 C 87 % 1003,7 hPa 0,0 l/m 2,3 km/h (1 Bft) NO 51 0 min 0,000 mm 0,0 UV-I 0 W/m 1,2 C 3,1 C 3,2 km/h (1 Bft) 97,73 %
05.03.2017 19:26 3,0 C 88 % 1003,7 hPa 0,0 l/m 1,1 km/h (1 Bft) NO 51 0 min 0,000 mm 0,0 UV-I 0 W/m 1,2 C 3,0 C 3,2 km/h (1 Bft) 96,00 %
05.03.2017 19:28 2,9 C 88 % 1003,7 hPa 0,0 l/m 0,0 km/h (0 Bft) NO 51 0 min 0,000 mm 0,0 UV-I 0 W/m 1,1 C 2,9 C 0,0 km/h (0 Bft) 92,00 %
05.03.2017 19:30 2,7 C 88 % 1003,7 hPa 0,0 l/m 0,0 km/h (0 Bft) NO 51 0 min 0,000 mm 0,0 UV-I 0 W/m 0,9 C 2,7 C 0,0 km/h (0 Bft) 97,56 %
05.03.2017 19:32 2,6 C 89 % 1003,7 hPa 0,0 l/m 0,0 km/h (0 Bft) NO 51 0 min 0,000 mm 0,0 UV-I 0 W/m 1,0 C 2,6 C 0,0 km/h (0 Bft) 96,00 %
05.03.2017 19:34 2,6 C 90 % 1003,6 hPa 0,0 l/m 0,0 km/h (0 Bft) NO 51 0 min 0,000 mm 0,0 UV-I 0 W/m 1,1 C 2,6 C 0,0 km/h (0 Bft) 94,74 %
05.03.2017 19:36 2,7 C 91 % 1003,6 hPa 0,0 l/m 0,9 km/h (0 Bft) NO 51 0 min 0,000 mm 0,0 UV-I 0 W/m 1,4 C 2,7 C 3,2 km/h (1 Bft) 100,00 %
05.03.2017 19:38 2,8 C 91 % 1003,5 hPa 0,0 l/m 2,2 km/h (1 Bft) NO 51 0 min 0,000 mm 0,0 UV-I 0 W/m 1,5 C 2,8 C 3,2 km/h (1 Bft) 93,18 %
05.03.2017 19:40 2,9 C 90 % 1003,5 hPa 0,0 l/m 3,7 km/h (1 Bft) NO 51 0 min 0,000 mm 0,0 UV-I 0 W/m 1,4 C 2,9 C 4,8 km/h (1 Bft) 100,00 %
05.03.2017 19:42 3,2 C 91 % 1003,5 hPa 0,0 l/m 4,1 km/h (1 Bft) NO 51 0 min 0,000 mm 0,0 UV-I 0 W/m 1,9 C 3,2 C 4,8 km/h (1 Bft) 96,00 %
05.03.2017 19:44 3,6 C 90 % 1003,5 hPa 0,0 l/m 4,6 km/h (1 Bft) NO 51 0 min 0,000 mm 0,0 UV-I 0 W/m 2,1 C 3,6 C 4,8 km/h (1 Bft) 96,00 %
05.03.2017 19:46 3,7 C 88 % 1003,5 hPa 0,0 l/m 3,8 km/h (1 Bft) NO 51 0 min 0,000 mm 0,0 UV-I 0 W/m 1,9 C 3,7 C 4,8 km/h (1 Bft) 94,74 %
05.03.2017 19:48 3,8 C 87 % 1003,5 hPa 0,0 l/m 3,3 km/h (1 Bft) NO 51 0 min 0,000 mm 0,0 UV-I 0 W/m 1,8 C 3,8 C 4,8 km/h (1 Bft) 98,21 %
05.03.2017 19:50 3,9 C 87 % 1003,5 hPa 0,0 l/m 4,0 km/h (1 Bft) NO 51 0 min 0,000 mm 0,0 UV-I 0 W/m 1,9 C 3,9 C 4,8 km/h (1 Bft) 100,00 %
05.03.2017 19:52 4,1 C 87 % 1003,4 hPa 0,0 l/m 3,5 km/h (1 Bft) NO 51 0 min 0,000 mm 0,0 UV-I 0 W/m 2,1 C 4,1 C 4,8 km/h (1 Bft) 94,34 %
05.03.2017 19:54 4,2 C 87 % 1003,4 hPa 0,0 l/m 4,0 km/h (1 Bft) NO 51 0 min 0,000 mm 0,0 UV-I 0 W/m 2,2 C 4,2 C 4,8 km/h (1 Bft) 98,00 %
05.03.2017 19:56 4,2 C 86 % 1003,3 hPa 0,0 l/m 5,0 km/h (1 Bft) NO 51 0 min 0,000 mm 0,0 UV-I 0 W/m 2,1 C 4,2 C 6,4 km/h (2 Bft) 95,24 %
05.03.2017 19:58 4,2 C 86 % 1003,3 hPa 0,0 l/m 5,3 km/h (1 Bft) NO 51 0 min 0,000 mm 0,0 UV-I 0 W/m 2,1 C 4,2 C 6,4 km/h (2 Bft) 94,00 %
05.03.2017 20:00 4,3 C 86 % 1003,2 hPa 0,0 l/m 5,5 km/h (1 Bft) O-NO 60 0 min 0,000 mm 0,0 UV-I 0 W/m 2,2 C 4,3 C 8,0 km/h (2 Bft) 92,68 %
05.03.2017 20:02 4,2 C 85 % 1003,2 hPa 0,0 l/m 5,8 km/h (2 Bft) O-NO 67 0 min 0,000 mm 0,0 UV-I 0 W/m 1,9 C 4,2 C 8,0 km/h (2 Bft) 98,00 %
05.03.2017 20:04 4,1 C 85 % 1003,2 hPa 0,0 l/m 5,5 km/h (1 Bft) O-NO 66 0 min 0,000 mm 0,0 UV-I 0 W/m 1,8 C 4,1 C 8,0 km/h (2 Bft) 100,00 %
05.03.2017 20:06 4,0 C 86 % 1003,1 hPa 0,0 l/m 4,8 km/h (1 Bft) O-NO 66 0 min 0,000 mm 0,0 UV-I 0 W/m 1,9 C 4,0 C 6,4 km/h (2 Bft) 95,12 %
05.03.2017 20:09 3,9 C 86 % 1003,1 hPa 0,0 l/m 3,1 km/h (1 Bft) O-NO 66 0 min 0,000 mm 0,0 UV-I 0 W/m 1,8 C 3,9 C 4,8 km/h (1 Bft) 97,65 %
05.03.2017 20:10 3,8 C 86 % 1003,1 hPa 0,0 l/m 2,5 km/h (1 Bft) O-NO 66 0 min 0,000 mm 0,0 UV-I 0 W/m 1,7 C 3,8 C 3,2 km/h (1 Bft) 100,00 %
05.03.2017 20:12 3,7 C 86 % 1003,1 hPa 0,0 l/m 0,8 km/h (0 Bft) O-NO 66 0 min 0,000 mm 0,0 UV-I 0 W/m 1,6 C 3,7 C 3,2 km/h (1 Bft) 98,00 %
05.03.2017 20:14 3,3 C 85 % 1003,2 hPa 0,0 l/m 0,0 km/h (0 Bft) O-NO 66 0 min 0,000 mm 0,0 UV-I 0 W/m 1,0 C 3,3 C 0,0 km/h (0 Bft) 98,00 %
05.03.2017 20:16 2,8 C 86 % 1003,3 hPa 0,0 l/m 0,7 km/h (0 Bft) O-NO 66 0 min 0,000 mm 0,0 UV-I 0 W/m 0,7 C 2,8 C 1,6 km/h (1 Bft) 97,37 %
05.03.2017 20:18 2,5 C 87 % 1003,3 hPa 0,0 l/m 1,3 km/h (1 Bft) O-NO 66 0 min 0,000 mm 0,0 UV-I 0 W/m 0,6 C 2,5 C 3,2 km/h (1 Bft) 98,11 %
05.03.2017 20:20 2,3 C 88 % 1003,3 hPa 0,0 l/m 2,2 km/h (1 Bft) O-NO 66 0 min 0,000 mm 0,0 UV-I 0 W/m 0,5 C 2,3 C 3,2 km/h (1 Bft) 97,56 %
05.03.2017 20:22 2,2 C 89 % 1003,3 hPa 0,0 l/m 0,8 km/h (0 Bft) O-NO 66 0 min 0,000 mm 0,0 UV-I 0 W/m 0,6 C 2,2 C 4,8 km/h (1 Bft) 98,00 %
05.03.2017 20:24 2,0 C 89 % 1003,2 hPa 0,0 l/m 1,2 km/h (1 Bft) O-NO 66 0 min 0,000 mm 0,0 UV-I 0 W/m 0,4 C 2,0 C 3,2 km/h (1 Bft) 97,56 %
05.03.2017 20:26 1,9 C 90 % 1003,2 hPa 0,0 l/m 3,6 km/h (1 Bft) O-SO 105 0 min 0,000 mm 0,0 UV-I 0 W/m 0,4 C 1,9 C 4,8 km/h (1 Bft) 97,87 %
05.03.2017 20:28 1,9 C 90 % 1003,1 hPa 0,0 l/m 4,1 km/h (1 Bft) O-SO 106 0 min 0,000 mm 0,0 UV-I 0 W/m 0,4 C 1,9 C 4,8 km/h (1 Bft) 95,74 %
05.03.2017 20:30 1,9 C 90 % 1003,1 hPa 0,0 l/m 0,9 km/h (0 Bft) O-SO 106 0 min 0,000 mm 0,0 UV-I 0 W/m 0,4 C 1,9 C 4,8 km/h (1 Bft) 98,00 %
05.03.2017 20:32 1,8 C 90 % 1003,1 hPa 0,0 l/m 0,4 km/h (0 Bft) O-SO 106 0 min 0,000 mm 0,0 UV-I 0 W/m 0,3 C 1,8 C 1,6 km/h (1 Bft) 98,00 %
05.03.2017 20:34 1,7 C 91 % 1003,1 hPa 0,0 l/m 0,0 km/h (0 Bft) O-SO 106 0 min 0,000 mm 0,0 UV-I 0 W/m 0,4 C 1,7 C 0,0 km/h (0 Bft) 100,00 %
05.03.2017 20:36 1,7 C 91 % 1003,1 hPa 0,0 l/m 0,0 km/h (0 Bft) O-SO 106 0 min 0,000 mm 0,0 UV-I 0 W/m 0,4 C 1,7 C 0,0 km/h (0 Bft) 100,00 %
05.03.2017 20:38 1,7 C 91 % 1003,1 hPa 0,0 l/m 0,9 km/h (0 Bft) O-SO 106 0 min 0,000 mm 0,0 UV-I 0 W/m 0,4 C 1,7 C 3,2 km/h (1 Bft) 89,74 %
05.03.2017 20:40 1,7 C 92 % 1003,2 hPa 0,0 l/m 3,0 km/h (1 Bft) O-SO 106 0 min 0,000 mm 0,0 UV-I 0 W/m 0,5 C 1,7 C 3,2 km/h (1 Bft) 100,00 %
05.03.2017 20:42 1,7 C 92 % 1003,2 hPa 0,0 l/m 3,7 km/h (1 Bft) O-SO 106 0 min 0,000 mm 0,0 UV-I 0 W/m 0,5 C 1,7 C 4,8 km/h (1 Bft) 87,50 %
05.03.2017 20:44 1,7 C 92 % 1003,3 hPa 0,0 l/m 3,8 km/h (1 Bft) O-SO 106 0 min 0,000 mm 0,0 UV-I 0 W/m 0,5 C 1,7 C 4,8 km/h (1 Bft) 89,47 %
05.03.2017 20:46 1,7 C 92 % 1003,3 hPa 0,0 l/m 4,1 km/h (1 Bft) O-SO 109 0 min 0,000 mm 0,0 UV-I 0 W/m 0,5 C 1,7 C 4,8 km/h (1 Bft) 98,11 %
05.03.2017 20:48 1,6 C 92 % 1003,3 hPa 0,0 l/m 3,4 km/h (1 Bft) O-SO 109 0 min 0,000 mm 0,0 UV-I 0 W/m 0,4 C 1,6 C 4,8 km/h (1 Bft) 97,87 %
05.03.2017 20:50 1,6 C 91 % 1003,2 hPa 0,0 l/m 1,7 km/h (1 Bft) O-SO 109 0 min 0,000 mm 0,0 UV-I 0 W/m 0,3 C 1,6 C 4,8 km/h (1 Bft) 95,74 %
05.03.2017 20:52 1,6 C 92 % 1003,2 hPa 0,0 l/m 1,9 km/h (1 Bft) O-SO 109 0 min 0,000 mm 0,0 UV-I 0 W/m 0,4 C 1,6 C 3,2 km/h (1 Bft) 95,74 %
05.03.2017 20:54 1,5 C 92 % 1003,3 hPa 0,0 l/m 2,4 km/h (1 Bft) O-SO 109 0 min 0,000 mm 0,0 UV-I 0 W/m 0,3 C 1,5 C 3,2 km/h (1 Bft) 91,49 %
05.03.2017 20:56 1,5 C 92 % 1003,2 hPa 0,0 l/m 2,6 km/h (1 Bft) O-SO 109 0 min 0,000 mm 0,0 UV-I 0 W/m 0,3 C 1,5 C 3,2 km/h (1 Bft) 94,74 %
05.03.2017 20:58 1,5 C 92 % 1003,2 hPa 0,0 l/m 2,3 km/h (1 Bft) O-SO 109 0 min 0,000 mm 0,0 UV-I 0 W/m 0,3 C 1,5 C 3,2 km/h (1 Bft) 96,36 %
05.03.2017 21:00 1,4 C 92 % 1003,3 hPa 0,0 l/m 2,7 km/h (1 Bft) O-SO 109 0 min 0,000 mm 0,0 UV-I 0 W/m 0,2 C 1,4 C 3,2 km/h (1 Bft) 93,62 %
05.03.2017 21:02 1,6 C 92 % 1003,3 hPa 0,0 l/m 3,6 km/h (1 Bft) O-SO 109 0 min 0,000 mm 0,0 UV-I 0 W/m 0,4 C 1,6 C 4,8 km/h (1 Bft) 92,11 %
05.03.2017 21:04 1,6 C 92 % 1003,3 hPa 0,0 l/m 3,3 km/h (1 Bft) O-SO 109 0 min 0,000 mm 0,0 UV-I 0 W/m 0,4 C 1,6 C 4,8 km/h (1 Bft) 94,00 %
05.03.2017 21:06 1,6 C 92 % 1003,3 hPa 0,0 l/m 2,9 km/h (1 Bft) O-SO 109 0 min 0,000 mm 0,0 UV-I 0 W/m 0,4 C 1,6 C 3,2 km/h (1 Bft) 94,00 %
05.03.2017 21:08 1,5 C 92 % 1003,2 hPa 0,0 l/m 1,0 km/h (0 Bft) O-SO 109 0 min 0,000 mm 0,0 UV-I 0 W/m 0,3 C 1,5 C 3,2 km/h (1 Bft) 93,62 %
05.03.2017 21:10 1,4 C 92 % 1003,2 hPa 0,0 l/m 0,7 km/h (0 Bft) O-SO 109 0 min 0,000 mm 0,0 UV-I 0 W/m 0,2 C 1,4 C 3,2 km/h (1 Bft) 94,87 %
05.03.2017 21:12 1,2 C 91 % 1003,1 hPa 0,0 l/m 2,4 km/h (1 Bft) O-SO 109 0 min 0,000 mm 0,0 UV-I 0 W/m -0,1 C 1,2 C 3,2 km/h (1 Bft) 96,15 %
05.03.2017 21:14 1,2 C 93 % 1003,1 hPa 0,0 l/m 1,5 km/h (1 Bft) O-SO 109 0 min 0,000 mm 0,0 UV-I 0 W/m 0,2 C 1,2 C 3,2 km/h (1 Bft) 95,56 %
05.03.2017 21:16 1,4 C 93 % 1003,1 hPa 0,0 l/m 0,2 km/h (0 Bft) O-SO 109 0 min 0,000 mm 0,0 UV-I 0 W/m 0,4 C 1,4 C 1,6 km/h (1 Bft) 94,23 %
05.03.2017 21:18 1,5 C 93 % 1003,1 hPa 0,0 l/m 0,1 km/h (0 Bft) O-SO 109 0 min 0,000 mm 0,0 UV-I 0 W/m 0,5 C 1,5 C 1,6 km/h (1 Bft) 93,75 %
05.03.2017 21:20 1,5 C 93 % 1003,1 hPa 0,0 l/m 1,1 km/h (1 Bft) O-SO 109 0 min 0,000 mm 0,0 UV-I 0 W/m 0,5 C 1,5 C 3,2 km/h (1 Bft) 94,00 %
05.03.2017 21:22 1,5 C 93 % 1003,0 hPa 0,0 l/m 2,2 km/h (1 Bft) O-SO 109 0 min 0,000 mm 0,0 UV-I 0 W/m 0,5 C 1,5 C 3,2 km/h (1 Bft) 92,11 %
05.03.2017 21:24 1,5 C 93 % 1003,1 hPa 0,0 l/m 2,3 km/h (1 Bft) O-SO 109 0 min 0,000 mm 0,0 UV-I 0 W/m 0,5 C 1,5 C 3,2 km/h (1 Bft) 93,62 %
05.03.2017 21:26 1,4 C 93 % 1003,0 hPa 0,0 l/m 3,2 km/h (1 Bft) O-SO 109 0 min 0,000 mm 0,0 UV-I 0 W/m 0,4 C 1,4 C 4,8 km/h (1 Bft) 88,68 %
05.03.2017 21:28 1,4 C 93 % 1003,0 hPa 0,0 l/m 3,0 km/h (1 Bft) O-SO 109 0 min 0,000 mm 0,0 UV-I 0 W/m 0,4 C 1,4 C 3,2 km/h (1 Bft) 93,62 %
05.03.2017 21:30 1,4 C 93 % 1003,1 hPa 0,0 l/m 1,3 km/h (1 Bft) O-SO 109 0 min 0,000 mm 0,0 UV-I 0 W/m 0,4 C 1,4 C 3,2 km/h (1 Bft) 90,24 %
05.03.2017 21:32 1,3 C 93 % 1003,1 hPa 0,0 l/m 0,0 km/h (0 Bft) O-SO 109 0 min 0,000 mm 0,0 UV-I 0 W/m 0,3 C 1,3 C 0,0 km/h (0 Bft) 95,74 %
05.03.2017 21:34 1,3 C 93 % 1003,1 hPa 0,0 l/m 0,0 km/h (0 Bft) O-SO 109 0 min 0,000 mm 0,0 UV-I 0 W/m 0,3 C 1,3 C 0,0 km/h (0 Bft) 93,62 %
05.03.2017 21:36 1,2 C 93 % 1003,1 hPa 0,0 l/m 0,0 km/h (0 Bft) O-SO 109 0 min 0,000 mm 0,0 UV-I 0 W/m 0,2 C 1,2 C 0,0 km/h (0 Bft) 94,00 %
05.03.2017 21:38 1,4 C 94 % 1003,0 hPa 0,0 l/m 0,5 km/h (0 Bft) O-SO 109 0 min 0,000 mm 0,0 UV-I 0 W/m 0,5 C 1,4 C 1,6 km/h (1 Bft) 89,36 %
05.03.2017 21:40 1,5 C 94 % 1003,0 hPa 0,0 l/m 2,2 km/h (1 Bft) O-SO 109 0 min 0,000 mm 0,0 UV-I 0 W/m 0,6 C 1,5 C 3,2 km/h (1 Bft) 95,74 %
05.03.2017 21:42 1,5 C 93 % 1003,0 hPa 0,0 l/m 1,6 km/h (1 Bft) O-SO 109 0 min 0,000 mm 0,0 UV-I 0 W/m 0,5 C 1,5 C 1,6 km/h (1 Bft) 95,12 %
05.03.2017 21:44 1,5 C 93 % 1003,0 hPa 0,0 l/m 1,8 km/h (1 Bft) O-SO 109 0 min 0,000 mm 0,0 UV-I 0 W/m 0,5 C 1,5 C 3,2 km/h (1 Bft) 95,45 %
05.03.2017 21:46 1,4 C 93 % 1003,0 hPa 0,0 l/m 2,9 km/h (1 Bft) O-SO 109 0 min 0,000 mm 0,0 UV-I 0 W/m 0,4 C 1,4 C 3,2 km/h (1 Bft) 98,00 %
05.03.2017 21:48 1,3 C 93 % 1003,0 hPa 0,0 l/m 3,8 km/h (1 Bft) O-SO 109 0 min 0,000 mm 0,0 UV-I 0 W/m 0,3 C 1,3 C 4,8 km/h (1 Bft) 95,92 %
05.03.2017 21:50 1,2 C 93 % 1002,9 hPa 0,0 l/m 5,1 km/h (1 Bft) O 99 0 min 0,000 mm 0,0 UV-I 0 W/m 0,2 C 1,2 C 6,4 km/h (2 Bft) 93,62 %
05.03.2017 21:52 1,3 C 93 % 1002,9 hPa 0,0 l/m 4,3 km/h (1 Bft) O 99 0 min 0,000 mm 0,0 UV-I 0 W/m 0,3 C 1,3 C 6,4 km/h (2 Bft) 92,00 %
05.03.2017 21:54 1,4 C 94 % 1003,0 hPa 0,0 l/m 1,6 km/h (1 Bft) O 99 0 min 0,000 mm 0,0 UV-I 0 W/m 0,5 C 1,4 C 4,8 km/h (1 Bft) 97,87 %
05.03.2017 21:56 1,5 C 93 % 1003,0 hPa 0,0 l/m 1,7 km/h (1 Bft) O-SO 113 0 min 0,000 mm 0,0 UV-I 0 W/m 0,5 C 1,5 C 4,8 km/h (1 Bft) 100,00 %
05.03.2017 21:58 1,3 C 93 % 1003,1 hPa 0,0 l/m 4,3 km/h (1 Bft) S 180 0 min 0,000 mm 0,0 UV-I 0 W/m 0,3 C 1,3 C 8,0 km/h (2 Bft) 98,00 %
05.03.2017 22:00 1,1 C 92 % 1003,1 hPa 0,0 l/m 5,7 km/h (1 Bft) S-SW 205 0 min 0,000 mm 0,0 UV-I 0 W/m -0,1 C 1,1 C 8,0 km/h (2 Bft) 94,34 %
05.03.2017 22:02 0,9 C 93 % 1003,1 hPa 0,0 l/m 6,8 km/h (2 Bft) S-SW 209 0 min 0,000 mm 0,0 UV-I 0 W/m -0,1 C 0,5 C 8,0 km/h (2 Bft) 100,00 %
05.03.2017 22:04 0,8 C 93 % 1003,1 hPa 0,0 l/m 6,0 km/h (2 Bft) S-SW 209 0 min 0,000 mm 0,0 UV-I 0 W/m -0,2 C 0,8 C 8,0 km/h (2 Bft) 98,11 %
05.03.2017 22:06 0,8 C 93 % 1003,1 hPa 0,0 l/m 4,6 km/h (1 Bft) S-SW 209 0 min 0,000 mm 0,0 UV-I 0 W/m -0,2 C 0,8 C 6,4 km/h (2 Bft) 96,00 %
05.03.2017 22:08 1,0 C 94 % 1003,1 hPa 0,0 l/m 3,4 km/h (1 Bft) S-SW 209 0 min 0,000 mm 0,0 UV-I 0 W/m 0,1 C 1,0 C 4,8 km/h (1 Bft) 100,00 %
05.03.2017 22:10 1,1 C 94 % 1003,1 hPa 0,0 l/m 2,0 km/h (1 Bft) S-SW 209 0 min 0,000 mm 0,0 UV-I 0 W/m 0,2 C 1,1 C 3,2 km/h (1 Bft) 100,00 %
05.03.2017 22:12 0,9 C 93 % 1003,0 hPa 0,0 l/m 0,0 km/h (0 Bft) S-SW 209 0 min 0,000 mm 0,0 UV-I 0 W/m -0,1 C 0,9 C 1,6 km/h (1 Bft) 100,00 %
05.03.2017 22:14 0,7 C 93 % 1003,0 hPa 0,0 l/m 2,5 km/h (1 Bft) S-SW 209 0 min 0,000 mm 0,0 UV-I 0 W/m -0,3 C 0,7 C 4,8 km/h (1 Bft) 100,00 %
05.03.2017 22:16 0,7 C 93 % 1003,0 hPa 0,0 l/m 3,3 km/h (1 Bft) S-SW 209 0 min 0,000 mm 0,0 UV-I 0 W/m -0,3 C 0,7 C 4,8 km/h (1 Bft) 98,00 %
05.03.2017 22:19 0,9 C 94 % 1003,0 hPa 0,0 l/m 3,5 km/h (1 Bft) S-SW 209 0 min 0,000 mm 0,0 UV-I 0 W/m 0,0 C 0,9 C 4,8 km/h (1 Bft) 98,65 %
05.03.2017 22:20 0,9 C 94 % 1003,0 hPa 0,0 l/m 2,5 km/h (1 Bft) S-SW 209 0 min 0,000 mm 0,0 UV-I 0 W/m 0,0 C 0,9 C 3,2 km/h (1 Bft) 100,00 %
05.03.2017 22:22 1,0 C 94 % 1003,0 hPa 0,0 l/m 1,7 km/h (1 Bft) S-SW 209 0 min 0,000 mm 0,0 UV-I 0 W/m 0,1 C 1,0 C 3,2 km/h (1 Bft) 100,00 %
05.03.2017 22:24 1,1 C 94 % 1003,0 hPa 0,0 l/m 2,4 km/h (1 Bft) S-SW 209 0 min 0,000 mm 0,0 UV-I 0 W/m 0,2 C 1,1 C 3,2 km/h (1 Bft) 100,00 %
05.03.2017 22:26 1,1 C 94 % 1002,9 hPa 0,0 l/m 2,5 km/h (1 Bft) S-SW 209 0 min 0,000 mm 0,0 UV-I 0 W/m 0,2 C 1,1 C 4,8 km/h (1 Bft) 100,00 %
05.03.2017 22:28 1,2 C 94 % 1002,9 hPa 0,0 l/m 2,7 km/h (1 Bft) S-SW 209 0 min 0,000 mm 0,0 UV-I 0 W/m 0,3 C 1,2 C 4,8 km/h (1 Bft) 98,00 %
05.03.2017 22:30 1,2 C 94 % 1003,0 hPa 0,0 l/m 3,1 km/h (1 Bft) S-SW 209 0 min 0,000 mm 0,0 UV-I 0 W/m 0,3 C 1,2 C 3,2 km/h (1 Bft) 100,00 %
05.03.2017 22:32 1,3 C 94 % 1002,9 hPa 0,0 l/m 3,2 km/h (1 Bft) S-SW 209 0 min 0,000 mm 0,0 UV-I 0 W/m 0,4 C 1,3 C 4,8 km/h (1 Bft) 100,00 %
05.03.2017 22:34 1,2 C 94 % 1002,9 hPa 0,0 l/m 2,9 km/h (1 Bft) S-SW 209 0 min 0,000 mm 0,0 UV-I 0 W/m 0,3 C 1,2 C 3,2 km/h (1 Bft) 100,00 %
05.03.2017 22:36 1,2 C 93 % 1002,9 hPa 0,0 l/m 2,5 km/h (1 Bft) S-SW 209 0 min 0,000 mm 0,0 UV-I 0 W/m 0,2 C 1,2 C 3,2 km/h (1 Bft) 98,00 %
05.03.2017 22:38 1,1 C 93 % 1002,9 hPa 0,0 l/m 2,5 km/h (1 Bft) S-SW 209 0 min 0,000 mm 0,0 UV-I 0 W/m 0,1 C 1,1 C 3,2 km/h (1 Bft) 100,00 %
05.03.2017 22:40 0,9 C 93 % 1002,9 hPa 0,0 l/m 3,0 km/h (1 Bft) S-SW 209 0 min 0,000 mm 0,0 UV-I 0 W/m -0,1 C 0,9 C 4,8 km/h (1 Bft) 96,00 %
05.03.2017 22:43 0,8 C 93 % 1002,9 hPa 0,0 l/m 1,2 km/h (1 Bft) S-SW 209 0 min 0,000 mm 0,0 UV-I 0 W/m -0,2 C 0,8 C 3,2 km/h (1 Bft) 100,00 %
05.03.2017 22:44 0,8 C 93 % 1002,9 hPa 0,0 l/m 0,8 km/h (0 Bft) S-SW 209 0 min 0,000 mm 0,0 UV-I 0 W/m -0,2 C 0,8 C 1,6 km/h (1 Bft) 100,00 %
05.03.2017 22:46 0,8 C 93 % 1002,9 hPa 0,0 l/m 1,4 km/h (1 Bft) S-SW 209 0 min 0,000 mm 0,0 UV-I 0 W/m -0,2 C 0,8 C 3,2 km/h (1 Bft) 100,00 %
05.03.2017 22:48 0,8 C 94 % 1002,9 hPa 0,0 l/m 2,1 km/h (1 Bft) S-SW 209 0 min 0,000 mm 0,0 UV-I 0 W/m -0,1 C 0,8 C 3,2 km/h (1 Bft) 97,87 %
05.03.2017 22:50 0,8 C 93 % 1002,9 hPa 0,0 l/m 1,0 km/h (0 Bft) S-SW 209 0 min 0,000 mm 0,0 UV-I 0 W/m -0,2 C 0,8 C 3,2 km/h (1 Bft) 100,00 %
05.03.2017 22:52 0,8 C 93 % 1002,8 hPa 0,0 l/m 1,8 km/h (1 Bft) S-SW 209 0 min 0,000 mm 0,0 UV-I 0 W/m -0,2 C 0,8 C 3,2 km/h (1 Bft) 97,56 %
05.03.2017 22:54 0,7 C 93 % 1002,8 hPa 0,0 l/m 3,5 km/h (1 Bft) S-SW 209 0 min 0,000 mm 0,0 UV-I 0 W/m -0,3 C 0,7 C 4,8 km/h (1 Bft) 95,74 %
05.03.2017 22:56 0,7 C 94 % 1002,7 hPa 0,0 l/m 2,9 km/h (1 Bft) S-SW 209 0 min 0,000 mm 0,0 UV-I 0 W/m -0,2 C 0,7 C 4,8 km/h (1 Bft) 100,00 %
05.03.2017 22:58 0,7 C 94 % 1002,7 hPa 0,0 l/m 1,4 km/h (1 Bft) S-SW 209 0 min 0,000 mm 0,0 UV-I 0 W/m -0,2 C 0,7 C 3,2 km/h (1 Bft) 100,00 %
05.03.2017 23:00 0,8 C 94 % 1002,7 hPa 0,0 l/m 0,5 km/h (0 Bft) S-SW 209 0 min 0,000 mm 0,0 UV-I 0 W/m -0,1 C 0,8 C 3,2 km/h (1 Bft) 94,34 %
05.03.2017 23:02 0,8 C 94 % 1002,7 hPa 0,0 l/m 1,6 km/h (1 Bft) S-SW 209 0 min 0,000 mm 0,0 UV-I 0 W/m -0,1 C 0,8 C 3,2 km/h (1 Bft) 95,12 %
05.03.2017 23:04 0,8 C 94 % 1002,7 hPa 0,0 l/m 1,7 km/h (1 Bft) S-SW 209 0 min 0,000 mm 0,0 UV-I 0 W/m -0,1 C 0,8 C 3,2 km/h (1 Bft) 97,87 %
05.03.2017 23:06 0,8 C 94 % 1002,6 hPa 0,0 l/m 0,0 km/h (0 Bft) S-SW 209 0 min 0,000 mm 0,0 UV-I 0 W/m -0,1 C 0,8 C 0,0 km/h (0 Bft) 100,00 %
05.03.2017 23:08 0,7 C 94 % 1002,6 hPa 0,0 l/m 0,1 km/h (0 Bft) S-SW 209 0 min 0,000 mm 0,0 UV-I 0 W/m -0,2 C 0,7 C 1,6 km/h (1 Bft) 100,00 %
05.03.2017 23:10 0,6 C 94 % 1002,6 hPa 0,0 l/m 0,8 km/h (0 Bft) S-SW 209 0 min 0,000 mm 0,0 UV-I 0 W/m -0,3 C 0,6 C 3,2 km/h (1 Bft) 98,00 %
05.03.2017 23:12 0,5 C 94 % 1002,6 hPa 0,0 l/m 3,6 km/h (1 Bft) S-SW 209 0 min 0,000 mm 0,0 UV-I 0 W/m -0,4 C 0,5 C 4,8 km/h (1 Bft) 95,74 %
05.03.2017 23:14 0,4 C 94 % 1002,7 hPa 0,0 l/m 2,9 km/h (1 Bft) S-SW 209 0 min 0,000 mm 0,0 UV-I 0 W/m -0,5 C 0,4 C 4,8 km/h (1 Bft) 97,62 %
05.03.2017 23:16 0,4 C 94 % 1002,7 hPa 0,0 l/m 3,0 km/h (1 Bft) S-SW 209 0 min 0,000 mm 0,0 UV-I 0 W/m -0,5 C 0,4 C 4,8 km/h (1 Bft) 96,15 %
05.03.2017 23:18 0,4 C 94 % 1002,7 hPa 0,0 l/m 2,6 km/h (1 Bft) S-SW 209 0 min 0,000 mm 0,0 UV-I 0 W/m -0,5 C 0,4 C 4,8 km/h (1 Bft) 97,44 %
05.03.2017 23:20 0,4 C 94 % 1002,7 hPa 0,0 l/m 3,9 km/h (1 Bft) S-SW 209 0 min 0,000 mm 0,0 UV-I 0 W/m -0,5 C 0,4 C 6,4 km/h (2 Bft) 96,23 %
05.03.2017 23:22 0,5 C 94 % 1002,7 hPa 0,0 l/m 2,2 km/h (1 Bft) S-SW 209 0 min 0,000 mm 0,0 UV-I 0 W/m -0,4 C 0,5 C 3,2 km/h (1 Bft) 96,00 %
05.03.2017 23:24 0,5 C 94 % 1002,7 hPa 0,0 l/m 2,5 km/h (1 Bft) S-SW 209 0 min 0,000 mm 0,0 UV-I 0 W/m -0,4 C 0,5 C 4,8 km/h (1 Bft) 100,00 %
05.03.2017 23:26 0,6 C 94 % 1002,8 hPa 0,0 l/m 3,2 km/h (1 Bft) S-SW 209 0 min 0,000 mm 0,0 UV-I 0 W/m -0,3 C 0,6 C 4,8 km/h (1 Bft) 96,23 %
05.03.2017 23:28 0,8 C 95 % 1002,8 hPa 0,0 l/m 3,7 km/h (1 Bft) S-SW 209 0 min 0,000 mm 0,0 UV-I 0 W/m 0,1 C 0,8 C 6,4 km/h (2 Bft) 92,11 %
05.03.2017 23:30 1,0 C 94 % 1002,9 hPa 0,0 l/m 3,3 km/h (1 Bft) S-SW 209 0 min 0,000 mm 0,0 UV-I 0 W/m 0,1 C 1,0 C 4,8 km/h (1 Bft) 98,21 %
05.03.2017 23:32 1,1 C 94 % 1002,8 hPa 0,0 l/m 1,1 km/h (1 Bft) S-SW 209 0 min 0,000 mm 0,0 UV-I 0 W/m 0,2 C 1,1 C 3,2 km/h (1 Bft) 94,74 %
05.03.2017 23:34 1,2 C 94 % 1002,8 hPa 0,0 l/m 2,3 km/h (1 Bft) S-SW 208 0 min 0,000 mm 0,0 UV-I 0 W/m 0,3 C 1,2 C 3,2 km/h (1 Bft) 94,00 %
05.03.2017 23:36 1,2 C 94 % 1002,8 hPa 0,0 l/m 3,0 km/h (1 Bft) S-SW 206 0 min 0,000 mm 0,0 UV-I 0 W/m 0,3 C 1,2 C 4,8 km/h (1 Bft) 98,00 %
05.03.2017 23:38 1,3 C 94 % 1003,0 hPa 0,0 l/m 4,7 km/h (1 Bft) S-SW 205 0 min 0,000 mm 0,0 UV-I 0 W/m 0,4 C 1,3 C 6,4 km/h (2 Bft) 95,12 %
05.03.2017 23:40 1,3 C 94 % 1002,9 hPa 0,0 l/m 3,3 km/h (1 Bft) S-SW 205 0 min 0,000 mm 0,0 UV-I 0 W/m 0,4 C 1,3 C 4,8 km/h (1 Bft) 98,00 %
05.03.2017 23:42 1,3 C 93 % 1003,0 hPa 0,0 l/m 3,2 km/h (1 Bft) S-SW 205 0 min 0,000 mm 0,0 UV-I 0 W/m 0,3 C 1,3 C 4,8 km/h (1 Bft) 95,12 %
05.03.2017 23:44 1,3 C 93 % 1003,0 hPa 0,0 l/m 4,5 km/h (1 Bft) S-SW 205 0 min 0,000 mm 0,0 UV-I 0 W/m 0,3 C 1,3 C 4,8 km/h (1 Bft) 96,23 %
05.03.2017 23:46 1,4 C 93 % 1003,1 hPa 0,0 l/m 4,5 km/h (1 Bft) S-SW 205 0 min 0,000 mm 0,0 UV-I 0 W/m 0,4 C 1,4 C 6,4 km/h (2 Bft) 97,73 %
05.03.2017 23:48 1,3 C 93 % 1003,2 hPa 0,0 l/m 5,2 km/h (1 Bft) S-SW 205 0 min 0,000 mm 0,0 UV-I 0 W/m 0,3 C 1,3 C 6,4 km/h (2 Bft) 96,00 %
05.03.2017 23:50 1,3 C 93 % 1003,2 hPa 0,0 l/m 5,2 km/h (1 Bft) S-SW 205 0 min 0,000 mm 0,0 UV-I 0 W/m 0,3 C 1,3 C 8,0 km/h (2 Bft) 95,74 %
05.03.2017 23:52 1,3 C 93 % 1003,3 hPa 0,0 l/m 5,2 km/h (1 Bft) S-SW 206 0 min 0,000 mm 0,0 UV-I 0 W/m 0,3 C 1,3 C 6,4 km/h (2 Bft) 94,00 %
05.03.2017 23:54 1,3 C 93 % 1003,3 hPa 0,0 l/m 6,6 km/h (2 Bft) S-SW 207 0 min 0,000 mm 0,0 UV-I 0 W/m 0,3 C 1,1 C 9,7 km/h (2 Bft) 97,44 %
05.03.2017 23:56 1,4 C 93 % 1003,6 hPa 0,0 l/m 9,3 km/h (2 Bft) S-SW 212 0 min 0,000 mm 0,0 UV-I 0 W/m 0,4 C -1,3 C 12,9 km/h (3 Bft) 94,55 %
05.03.2017 23:58 1,5 C 93 % 1003,8 hPa 0,0 l/m 11,5 km/h (2 Bft) W-SW 245 0 min 0,000 mm 0,0 UV-I 0 W/m 0,5 C -2,9 C 16,1 km/h (3 Bft) 97,62 %
_ Min-Zeit 23:14 00:00 00:00 - 17:58 - - - - - - 23:14 23:58 17:58 00:02
Minimum _ 0,4 C 54 % 997,3 hPa - 0,0 km/h (0 Bft) - - - - - - -0,5 C -2,9 C 0,0 km/h (0 Bft) 9,09 %
_ Max-Zeit 00:00 23:28 10:26 00:00 01:48 - - 17:19 12:00 11:26 11:26 01:44 00:02 01:24 00:00
Maximum _ 11,3 C 95 % 1007,4 hPa 0,0 l/m 25,7 km/h
W (4 Bft)
- - 3 min 0,152 mm 1,3 UV-I 399 W/m 4,3 C 11,1 C 53,1 km/h
W-SW (7 Bft)
100,00 %
Durchschnitt _ 6,5 C 76 % 1004,4 hPa #0,0 l/m 8,1 km/h (2 Bft) W-SW - #1:28 h #1,143 mm 0,6 UV-I 108 W/m 2,4 C 4,6 C 12,6 km/h (3 Bft) 97,42 %